Observation data for Bootleg on 11/19/2019      Previous  Date       Current Mesonet Observations  Soil Data  Daily Summary Page  Observations in Plain Language
KBO1 190600Z 19010KT 05/M02 A3004 RMK A01 T00501023  RH  059%=      5-min Rain = 0
KBO1 190601Z 18010KT 05/M02 A3004 RMK A01 T00501023  RH  059%=      5-min Rain = 0
KBO1 190602Z 18009KT 05/M02 A3004 RMK A01 T00511023  RH  059%=      5-min Rain = 0
KBO1 190603Z 18009KT 05/M02 A3004 RMK A01 T00521023  RH  058%=      5-min Rain = 0
KBO1 190604Z 18009KT 05/M02 A3004 RMK A01 T00531024  RH  058%=      5-min Rain = 0
KBO1 190605Z 18009KT 05/M02 A3004 RMK A01 T00531024  RH  058%=      5-min Rain = 0
KBO1 190606Z 18008KT 05/M02 A3004 RMK A01 T00541023  RH  058%=      5-min Rain = 0
KBO1 190607Z 19008KT 05/M02 A3004 RMK A01 T00541023  RH  058%=      5-min Rain = 0
KBO1 190608Z 19008KT 05/M02 A3004 RMK A01 T00531024  RH  058%=      5-min Rain = 0
KBO1 190609Z 19008KT 05/M02 A3004 RMK A01 T00531024  RH  058%=      5-min Rain = 0
KBO1 190610Z 19008KT 05/M03 A3004 RMK A01 T00511025  RH  058%=      5-min Rain = 0
KBO1 190611Z 19008KT 05/M03 A3004 RMK A01 T00501025  RH  058%=      5-min Rain = 0
KBO1 190612Z 19008KT 05/M03 A3004 RMK A01 T00491025  RH  059%=      5-min Rain = 0
KBO1 190613Z 20008KT 05/M03 A3004 RMK A01 T00481025  RH  059%=      5-min Rain = 0
KBO1 190614Z 20008KT 05/M03 A3004 RMK A01 T00471026  RH  059%=      5-min Rain = 0
KBO1 190615Z 20008KT 05/M03 A3004 RMK A01 T00461026  RH  060%=      5-min Rain = 0
KBO1 190616Z 20009KT 04/M03 A3004 RMK A01 T00441026  RH  060%=      5-min Rain = 0
KBO1 190617Z 20009KT 04/M03 A3004 RMK A01 T00431027  RH  060%=      5-min Rain = 0
KBO1 190618Z 20009KT 04/M03 A3004 RMK A01 T00411028  RH  061%=      5-min Rain = 0
KBO1 190619Z 20009KT 04/M03 A3004 RMK A01 T00411027  RH  061%=      5-min Rain = 0
KBO1 190620Z 20009KT 04/M03 A3004 RMK A01 T00401027  RH  061%=      5-min Rain = 0
KBO1 190621Z 20009KT 04/M03 A3004 RMK A01 T00391028  RH  062%=      5-min Rain = 0
KBO1 190622Z 20009KT 04/M03 A3004 RMK A01 T00381028  RH  062%=      5-min Rain = 0
KBO1 190623Z 19009KT 04/M03 A3004 RMK A01 T00381028  RH  062%=      5-min Rain = 0
KBO1 190624Z 19009KT 04/M03 A3004 RMK A01 T00381027  RH  063%=      5-min Rain = 0
KBO1 190625Z 19009KT 04/M03 A3004 RMK A01 T00391027  RH  062%=      5-min Rain = 0
KBO1 190626Z 19008KT 04/M03 A3004 RMK A01 T00401027  RH  062%=      5-min Rain = 0
KBO1 190627Z 19008KT 04/M03 A3004 RMK A01 T00401027  RH  062%=      5-min Rain = 0
KBO1 190628Z 19009KT 04/M03 A3004 RMK A01 T00401027  RH  061%=      5-min Rain = 0
KBO1 190629Z 19009KT 04/M03 A3004 RMK A01 T00401028  RH  061%=      5-min Rain = 0
KBO1 190630Z 19009KT 04/M03 A3004 RMK A01 T00401028  RH  061%=      5-min Rain = 0
KBO1 190631Z 19009KT 04/M03 A3004 RMK A01 T00421027  RH  061%=      5-min Rain = 0
KBO1 190632Z 19009KT 04/M03 A3004 RMK A01 T00431027  RH  060%=      5-min Rain = 0
KBO1 190633Z 19009KT 04/M03 A3004 RMK A01 T00431028  RH  060%=      5-min Rain = 0
KBO1 190634Z 19009KT 04/M03 A3004 RMK A01 T00431028  RH  060%=      5-min Rain = 0
KBO1 190635Z 19009KT 04/M03 A3004 RMK A01 T00431028  RH  060%=      5-min Rain = 0
KBO1 190636Z 19009KT 04/M03 A3004 RMK A01 T00421028  RH  060%=      5-min Rain = 0
KBO1 190637Z 18009KT 04/M03 A3004 RMK A01 T00421028  RH  060%=      5-min Rain = 0
KBO1 190638Z 18009KT 04/M03 A3004 RMK A01 T00431027  RH  060%=      5-min Rain = 0
KBO1 190639Z 18009KT 04/M03 A3004 RMK A01 T00431027  RH  060%=      5-min Rain = 0
KBO1 190640Z 18009KT 04/M03 A3004 RMK A01 T00441027  RH  060%=      5-min Rain = 0
KBO1 190641Z 18009KT 04/M03 A3004 RMK A01 T00441027  RH  060%=      5-min Rain = 0
KBO1 190642Z 18009KT 04/M03 A3004 RMK A01 T00441027  RH  060%=      5-min Rain = 0
KBO1 190643Z 18009KT 05/M03 A3004 RMK A01 T00451027  RH  060%=      5-min Rain = 0
KBO1 190644Z 18009KT 05/M03 A3004 RMK A01 T00451027  RH  059%=      5-min Rain = 0
KBO1 190645Z 18009KT 05/M03 A3004 RMK A01 T00451027  RH  059%=      5-min Rain = 0
KBO1 190646Z 18010KT 05/M03 A3004 RMK A01 T00461027  RH  059%=      5-min Rain = 0
KBO1 190647Z 18010KT 05/M03 A3004 RMK A01 T00471026  RH  059%=      5-min Rain = 0
KBO1 190648Z 18010KT 05/M03 A3004 RMK A01 T00481026  RH  059%=      5-min Rain = 0
KBO1 190649Z 18010KT 05/M03 A3004 RMK A01 T00491025  RH  059%=      5-min Rain = 0
KBO1 190650Z 18010KT 05/M03 A3004 RMK A01 T00501025  RH  059%=      5-min Rain = 0
KBO1 190651Z 18010KT 05/M03 A3004 RMK A01 T00501025  RH  058%=      5-min Rain = 0
KBO1 190652Z 18010KT 05/M03 A3004 RMK A01 T00511025  RH  058%=      5-min Rain = 0
KBO1 190653Z 18011KT 05/M03 A3004 RMK A01 T00521025  RH  058%=      5-min Rain = 0
KBO1 190654Z 18011KT 05/M02 A3004 RMK A01 T00541024  RH  057%=      5-min Rain = 0
KBO1 190655Z 18011KT 06/M02 A3004 RMK A01 T00551024  RH  057%=      5-min Rain = 0
KBO1 190656Z 18011KT 06/M02 A3004 RMK A01 T00561024  RH  056%=      5-min Rain = 0
KBO1 190657Z 18011KT 06/M02 A3004 RMK A01 T00571024  RH  056%=      5-min Rain = 0
KBO1 190658Z 18011KT 06/M02 A3004 RMK A01 T00581024  RH  055%=      5-min Rain = 0
KBO1 190659Z 18010KT 06/M02 A3004 RMK A01 T00591024  RH  055%=      5-min Rain = 0
KBO1 190700Z 18010KT 06/M02 A3004 RMK A01 T00591024  RH  055%=      5-min Rain = 0
KBO1 190701Z 18010KT 06/M02 A3004 RMK A01 T00591024  RH  055%=      5-min Rain = 0
KBO1 190702Z 18010KT 06/M02 A3004 RMK A01 T00591024  RH  055%=      5-min Rain = 0
KBO1 190703Z 18010KT 06/M02 A3004 RMK A01 T00591024  RH  055%=      5-min Rain = 0
KBO1 190704Z 18010KT 06/M02 A3004 RMK A01 T00591024  RH  055%=      5-min Rain = 0
KBO1 190705Z 19010KT 06/M02 A3004 RMK A01 T00601024  RH  055%=      5-min Rain = 0
KBO1 190706Z 19010KT 06/M02 A3004 RMK A01 T00591024  RH  055%=      5-min Rain = 0
KBO1 190707Z 19010KT 06/M02 A3004 RMK A01 T00601024  RH  055%=      5-min Rain = 0
KBO1 190708Z 19010KT 06/M02 A3004 RMK A01 T00611024  RH  055%=      5-min Rain = 0
KBO1 190709Z 19010KT 06/M02 A3004 RMK A01 T00611024  RH  054%=      5-min Rain = 0
KBO1 190710Z 19010KT 06/M02 A3004 RMK A01 T00611024  RH  054%=      5-min Rain = 0
KBO1 190711Z 19010KT 06/M03 A3003 RMK A01 T00611025  RH  054%=      5-min Rain = 0
KBO1 190712Z 19010KT 06/M03 A3003 RMK A01 T00601025  RH  054%=      5-min Rain = 0
KBO1 190713Z 19010KT 06/M03 A3003 RMK A01 T00601025  RH  054%=      5-min Rain = 0
KBO1 190714Z 19010KT 06/M03 A3003 RMK A01 T00601025  RH  055%=      5-min Rain = 0
KBO1 190715Z 19010KT 06/M03 A3003 RMK A01 T00591025  RH  055%=      5-min Rain = 0
KBO1 190716Z 19010KT 06/M03 A3003 RMK A01 T00591025  RH  055%=      5-min Rain = 0
KBO1 190717Z 20010KT 06/M03 A3003 RMK A01 T00591025  RH  055%=      5-min Rain = 0
KBO1 190718Z 19010KT 06/M03 A3003 RMK A01 T00581025  RH  055%=      5-min Rain = 0
KBO1 190719Z 19010KT 06/M03 A3003 RMK A01 T00581025  RH  055%=      5-min Rain = 0
KBO1 190720Z 19010KT 06/M03 A3003 RMK A01 T00571025  RH  055%=      5-min Rain = 0
KBO1 190721Z 19010KT 06/M03 A3003 RMK A01 T00571025  RH  055%=      5-min Rain = 0
KBO1 190722Z 19010KT 06/M03 A3003 RMK A01 T00571025  RH  055%=      5-min Rain = 0
KBO1 190723Z 19009KT 06/M03 A3003 RMK A01 T00571025  RH  055%=      5-min Rain = 0
KBO1 190724Z 19009KT 06/M03 A3003 RMK A01 T00571026  RH  055%=      5-min Rain = 0
KBO1 190725Z 19009KT 06/M03 A3003 RMK A01 T00571026  RH  055%=      5-min Rain = 0
KBO1 190726Z 19009KT 06/M03 A3003 RMK A01 T00561026  RH  055%=      5-min Rain = 0
KBO1 190727Z 19009KT 06/M03 A3003 RMK A01 T00561026  RH  055%=      5-min Rain = 0
KBO1 190728Z 19009KT 06/M03 A3003 RMK A01 T00551027  RH  056%=      5-min Rain = 0
KBO1 190729Z 19009KT 05/M03 A3003 RMK A01 T00531027  RH  056%=      5-min Rain = 0
KBO1 190730Z 19010KT 05/M03 A3003 RMK A01 T00531028  RH  056%=      5-min Rain = 0
KBO1 190731Z 19009KT 05/M03 A3003 RMK A01 T00521028  RH  056%=      5-min Rain = 0
KBO1 190732Z 19009KT 05/M03 A3003 RMK A01 T00521028  RH  056%=      5-min Rain = 0
KBO1 190733Z 19009KT 05/M03 A3003 RMK A01 T00521028  RH  056%=      5-min Rain = 0
KBO1 190734Z 19009KT 05/M03 A3003 RMK A01 T00521028  RH  056%=      5-min Rain = 0
KBO1 190735Z 19009KT 05/M03 A3003 RMK A01 T00521028  RH  056%=      5-min Rain = 0
KBO1 190736Z 19009KT 05/M03 A3003 RMK A01 T00511028  RH  057%=      5-min Rain = 0
KBO1 190737Z 19009KT 05/M03 A3003 RMK A01 T00501029  RH  057%=      5-min Rain = 0
KBO1 190738Z 19009KT 05/M03 A3003 RMK A01 T00491029  RH  057%=      5-min Rain = 0
KBO1 190739Z 19009KT 05/M03 A3003 RMK A01 T00471029  RH  058%=      5-min Rain = 0
KBO1 190740Z 19009KT 05/M03 A3003 RMK A01 T00451030  RH  058%=      5-min Rain = 0
KBO1 190741Z 19009KT 04/M03 A3003 RMK A01 T00431031  RH  059%=      5-min Rain = 0
KBO1 190742Z 19009KT 04/M03 A3003 RMK A01 T00421031  RH  059%=      5-min Rain = 0
KBO1 190743Z 19009KT 04/M03 A3003 RMK A01 T00421031  RH  059%=      5-min Rain = 0
KBO1 190744Z 19010KT 04/M03 A3003 RMK A01 T00411031  RH  059%=      5-min Rain = 0
KBO1 190745Z 20010KT 04/M03 A3003 RMK A01 T00411030  RH  060%=      5-min Rain = 0
KBO1 190746Z 20010KT 04/M03 A3003 RMK A01 T00401030  RH  060%=      5-min Rain = 0
KBO1 190747Z 20010KT 04/M03 A3003 RMK A01 T00401030  RH  060%=      5-min Rain = 0
KBO1 190748Z 20010KT 04/M03 A3003 RMK A01 T00411030  RH  060%=      5-min Rain = 0
KBO1 190749Z 20010KT 04/M03 A3003 RMK A01 T00411030  RH  060%=      5-min Rain = 0
KBO1 190750Z 20010KT 04/M03 A3003 RMK A01 T00411030  RH  060%=      5-min Rain = 0
KBO1 190751Z 20010KT 04/M03 A3003 RMK A01 T00411029  RH  060%=      5-min Rain = 0
KBO1 190752Z 20010KT 04/M03 A3003 RMK A01 T00421029  RH  060%=      5-min Rain = 0
KBO1 190753Z 20011KT 04/M03 A3003 RMK A01 T00431028  RH  060%=      5-min Rain = 0
KBO1 190754Z 20011KT 04/M03 A3003 RMK A01 T00441027  RH  060%=      5-min Rain = 0
KBO1 190755Z 19011KT 05/M03 A3003 RMK A01 T00461026  RH  059%=      5-min Rain = 0
KBO1 190756Z 19011KT 05/M03 A3003 RMK A01 T00491026  RH  059%=      5-min Rain = 0
KBO1 190757Z 19011KT 05/M03 A3003 RMK A01 T00511025  RH  058%=      5-min Rain = 0
KBO1 190758Z 20011KT 05/M03 A3003 RMK A01 T00531025  RH  057%=      5-min Rain = 0
KBO1 190759Z 19011KT 05/M03 A3003 RMK A01 T00541025  RH  057%=      5-min Rain = 0
KBO1 190800Z 19011KT 05/M03 A3003 RMK A01 T00541026  RH  057%=      5-min Rain = 0
KBO1 190801Z 19011KT 05/M03 A3003 RMK A01 T00541026  RH  057%=      5-min Rain = 0
KBO1 190802Z 20011KT 05/M03 A3003 RMK A01 T00541026  RH  056%=      5-min Rain = 0
KBO1 190803Z 20011KT 05/M03 A3003 RMK A01 T00541026  RH  056%=      5-min Rain = 0
KBO1 190804Z 19011KT 05/M03 A3003 RMK A01 T00541026  RH  056%=      5-min Rain = 0
KBO1 190805Z 19011KT 05/M03 A3003 RMK A01 T00541026  RH  056%=      5-min Rain = 0
KBO1 190806Z 19011KT 06/M03 A3003 RMK A01 T00561025  RH  056%=      5-min Rain = 0
KBO1 190807Z 19011KT 06/M03 A3003 RMK A01 T00571025  RH  056%=      5-min Rain = 0
KBO1 190808Z 19011KT 06/M03 A3003 RMK A01 T00581025  RH  055%=      5-min Rain = 0
KBO1 190809Z 19011KT 06/M03 A3003 RMK A01 T00581025  RH  055%=      5-min Rain = 0
KBO1 190810Z 19011KT 06/M03 A3003 RMK A01 T00581025  RH  055%=      5-min Rain = 0
KBO1 190811Z 19011KT 06/M03 A3003 RMK A01 T00591025  RH  055%=      5-min Rain = 0
KBO1 190812Z 19011KT 06/M03 A3003 RMK A01 T00581025  RH  055%=      5-min Rain = 0
KBO1 190813Z 19011KT 06/M03 A3003 RMK A01 T00591025  RH  055%=      5-min Rain = 0
KBO1 190814Z 19011KT 06/M03 A3003 RMK A01 T00591026  RH  055%=      5-min Rain = 0
KBO1 190815Z 19010KT 06/M03 A3003 RMK A01 T00591026  RH  054%=      5-min Rain = 0
KBO1 190816Z 19010KT 06/M03 A3003 RMK A01 T00591026  RH  055%=      5-min Rain = 0
KBO1 190817Z 20010KT 06/M03 A3003 RMK A01 T00581026  RH  055%=      5-min Rain = 0
KBO1 190818Z 19011KT 06/M03 A3003 RMK A01 T00571027  RH  055%=      5-min Rain = 0
KBO1 190819Z 19011KT 06/M03 A3003 RMK A01 T00561027  RH  055%=      5-min Rain = 0
KBO1 190820Z 19011KT 06/M03 A3003 RMK A01 T00551027  RH  056%=      5-min Rain = 0
KBO1 190821Z 19011KT 05/M03 A3003 RMK A01 T00541027  RH  056%=      5-min Rain = 0
KBO1 190822Z 19011KT 05/M03 A3003 RMK A01 T00541027  RH  056%=      5-min Rain = 0
KBO1 190823Z 19011KT 06/M03 A3003 RMK A01 T00551027  RH  056%=      5-min Rain = 0
KBO1 190824Z 19011KT 06/M03 A3003 RMK A01 T00551027  RH  056%=      5-min Rain = 0
KBO1 190825Z 19011KT 06/M03 A3003 RMK A01 T00551026  RH  056%=      5-min Rain = 0
KBO1 190826Z 19011KT 06/M03 A3003 RMK A01 T00561026  RH  056%=      5-min Rain = 0
KBO1 190827Z 19011KT 06/M03 A3003 RMK A01 T00571026  RH  055%=      5-min Rain = 0
KBO1 190828Z 19011KT 06/M03 A3003 RMK A01 T00581025  RH  055%=      5-min Rain = 0
KBO1 190829Z 19010KT 06/M03 A3003 RMK A01 T00581025  RH  055%=      5-min Rain = 0
KBO1 190830Z 19010KT 06/M03 A3003 RMK A01 T00591025  RH  055%=      5-min Rain = 0
KBO1 190831Z 19011KT 06/M03 A3003 RMK A01 T00591025  RH  055%=      5-min Rain = 0
KBO1 190832Z 19011KT 06/M03 A3003 RMK A01 T00591025  RH  055%=      5-min Rain = 0
KBO1 190833Z 19010KT 06/M03 A3003 RMK A01 T00591026  RH  055%=      5-min Rain = 0
KBO1 190834Z 19011KT 06/M03 A3003 RMK A01 T00581026  RH  055%=      5-min Rain = 0
KBO1 190835Z 19011KT 06/M03 A3003 RMK A01 T00581026  RH  055%=      5-min Rain = 0
KBO1 190836Z 19011KT 06/M03 A3003 RMK A01 T00581026  RH  055%=      5-min Rain = 0
KBO1 190837Z 19011KT 06/M03 A3003 RMK A01 T00581026  RH  055%=      5-min Rain = 0
KBO1 190838Z 20011KT 06/M03 A3003 RMK A01 T00581026  RH  055%=      5-min Rain = 0
KBO1 190839Z 20012KT 06/M03 A3003 RMK A01 T00581026  RH  055%=      5-min Rain = 0
KBO1 190840Z 20012KT 06/M03 A3003 RMK A01 T00581025  RH  055%=      5-min Rain = 0
KBO1 190841Z 20012KT 06/M03 A3003 RMK A01 T00591025  RH  055%=      5-min Rain = 0
KBO1 190842Z 20011KT 06/M03 A3003 RMK A01 T00611025  RH  054%=      5-min Rain = 0
KBO1 190843Z 20011KT 06/M03 A3003 RMK A01 T00621025  RH  054%=      5-min Rain = 0
KBO1 190844Z 20011KT 06/M03 A3003 RMK A01 T00631025  RH  054%=      5-min Rain = 0
KBO1 190845Z 20011KT 06/M03 A3003 RMK A01 T00631025  RH  053%=      5-min Rain = 0
KBO1 190846Z 20011KT 06/M03 A3003 RMK A01 T00631025  RH  053%=      5-min Rain = 0
KBO1 190847Z 19011KT 06/M03 A3003 RMK A01 T00621025  RH  053%=      5-min Rain = 0
KBO1 190848Z 19011KT 06/M03 A3003 RMK A01 T00621025  RH  054%=      5-min Rain = 0
KBO1 190849Z 19012KT 06/M03 A3003 RMK A01 T00611026  RH  054%=      5-min Rain = 0
KBO1 190850Z 19011KT 06/M03 A3003 RMK A01 T00611026  RH  054%=      5-min Rain = 0
KBO1 190851Z 20011KT 06/M03 A3003 RMK A01 T00601026  RH  054%=      5-min Rain = 0
KBO1 190852Z 20011KT 06/M03 A3003 RMK A01 T00591026  RH  055%=      5-min Rain = 0
KBO1 190853Z 20011KT 06/M03 A3003 RMK A01 T00581025  RH  055%=      5-min Rain = 0
KBO1 190854Z 20011KT 06/M03 A3003 RMK A01 T00571025  RH  055%=      5-min Rain = 0
KBO1 190855Z 20011KT 06/M02 A3003 RMK A01 T00581024  RH  055%=      5-min Rain = 0
KBO1 190856Z 20011KT 06/M02 A3003 RMK A01 T00591024  RH  055%=      5-min Rain = 0
KBO1 190857Z 20011KT 06/M02 A3003 RMK A01 T00601024  RH  055%=      5-min Rain = 0
KBO1 190858Z 20011KT 06/M02 A3003 RMK A01 T00611023  RH  055%=      5-min Rain = 0
KBO1 190859Z 20012KT 06/M02 A3003 RMK A01 T00611023  RH  055%=      5-min Rain = 0
KBO1 190900Z 20012KT 06/M02 A3003 RMK A01 T00621022  RH  055%=      5-min Rain = 0
KBO1 190901Z 20012KT 06/M02 A3003 RMK A01 T00641022  RH  054%=      5-min Rain = 0
KBO1 190902Z 20012KT 07/M02 A3003 RMK A01 T00651022  RH  054%=      5-min Rain = 0
KBO1 190903Z 20012KT 07/M02 A3003 RMK A01 T00661022  RH  054%=      5-min Rain = 0
KBO1 190904Z 20012KT 07/M02 A3003 RMK A01 T00671021  RH  053%=      5-min Rain = 0
KBO1 190905Z 20011KT 07/M02 A3003 RMK A01 T00681021  RH  053%=      5-min Rain = 0
KBO1 190906Z 20011KT 07/M02 A3002 RMK A01 T00691021  RH  053%=      5-min Rain = 0
KBO1 190907Z 20011KT 07/M02 A3002 RMK A01 T00691021  RH  053%=      5-min Rain = 0
KBO1 190908Z 19010KT 07/M02 A3002 RMK A01 T00691021  RH  053%=      5-min Rain = 0
KBO1 190909Z 20011KT 07/M02 A3002 RMK A01 T00691021  RH  053%=      5-min Rain = 0
KBO1 190910Z 19011KT 07/M02 A3003 RMK A01 T00691021  RH  053%=      5-min Rain = 0
KBO1 190911Z 19011KT 07/M02 A3003 RMK A01 T00691021  RH  053%=      5-min Rain = 0
KBO1 190912Z 19011KT 07/M02 A3002 RMK A01 T00691021  RH  053%=      5-min Rain = 0
KBO1 190913Z 19011KT 07/M02 A3002 RMK A01 T00701021  RH  053%=      5-min Rain = 0
KBO1 190914Z 19011KT 07/M02 A3002 RMK A01 T00701020  RH  053%=      5-min Rain = 0
KBO1 190915Z 19011KT 07/M02 A3002 RMK A01 T00681021  RH  053%=      5-min Rain = 0
KBO1 190916Z 19011KT 07/M02 A3002 RMK A01 T00671021  RH  054%=      5-min Rain = 0
KBO1 190917Z 20012KT 07/M02 A3002 RMK A01 T00661020  RH  054%=      5-min Rain = 0
KBO1 190918Z 20012KT 07/M02 A3002 RMK A01 T00651020  RH  055%=      5-min Rain = 0
KBO1 190919Z 20012KT 07/M02 A3002 RMK A01 T00651019  RH  055%=      5-min Rain = 0
KBO1 190920Z 20012KT 06/M02 A3002 RMK A01 T00641019  RH  055%=      5-min Rain = 0
KBO1 190921Z 20012KT 06/M02 A3002 RMK A01 T00641019  RH  055%=      5-min Rain = 0
KBO1 190922Z 20012KT 06/M02 A3002 RMK A01 T00641019  RH  055%=      5-min Rain = 0
KBO1 190923Z 20012KT 07/M02 A3002 RMK A01 T00661018  RH  055%=      5-min Rain = 0
KBO1 190924Z 20012KT 07/M02 A3002 RMK A01 T00671017  RH  055%=      5-min Rain = 0
KBO1 190925Z 19012KT 07/M02 A3002 RMK A01 T00691018  RH  054%=      5-min Rain = 0
KBO1 190926Z 20013KT 07/M02 A3002 RMK A01 T00701017  RH  054%=      5-min Rain = 0
KBO1 190927Z 19013KT 07/M02 A3002 RMK A01 T00711017  RH  053%=      5-min Rain = 0
KBO1 190928Z 19012KT 07/M02 A3002 RMK A01 T00721017  RH  053%=      5-min Rain = 0
KBO1 190929Z 20012KT 07/M02 A3002 RMK A01 T00731017  RH  053%=      5-min Rain = 0
KBO1 190930Z 20012KT 07/M02 A3002 RMK A01 T00741017  RH  052%=      5-min Rain = 0
KBO1 190931Z 20012KT 07/M02 A3002 RMK A01 T00741017  RH  052%=      5-min Rain = 0
KBO1 190932Z 20012KT 07/M02 A3002 RMK A01 T00741017  RH  052%=      5-min Rain = 0
KBO1 190933Z 20012KT 07/M02 A3002 RMK A01 T00741018  RH  052%=      5-min Rain = 0
KBO1 190934Z 20012KT 08/M02 A3002 RMK A01 T00751018  RH  052%=      5-min Rain = 0
KBO1 190935Z 20011KT 08/M02 A3002 RMK A01 T00751018  RH  052%=      5-min Rain = 0
KBO1 190936Z 20011KT 08/M02 A3002 RMK A01 T00761018  RH  052%=      5-min Rain = 0
KBO1 190937Z 20011KT 08/M02 A3002 RMK A01 T00761018  RH  051%=      5-min Rain = 0
KBO1 190938Z 20011KT 08/M02 A3002 RMK A01 T00761018  RH  051%=      5-min Rain = 0
KBO1 190939Z 20011KT 08/M02 A3002 RMK A01 T00751018  RH  051%=      5-min Rain = 0
KBO1 190940Z 20011KT 07/M02 A3002 RMK A01 T00741019  RH  052%=      5-min Rain = 0
KBO1 190941Z 20011KT 07/M02 A3002 RMK A01 T00731019  RH  052%=      5-min Rain = 0
KBO1 190942Z 20011KT 07/M02 A3002 RMK A01 T00721019  RH  052%=      5-min Rain = 0
KBO1 190943Z 20010KT 07/M02 A3002 RMK A01 T00711020  RH  052%=      5-min Rain = 0
KBO1 190944Z 20010KT 07/M02 A3002 RMK A01 T00701020  RH  053%=      5-min Rain = 0
KBO1 190945Z 20010KT 07/M02 A3002 RMK A01 T00691020  RH  053%=      5-min Rain = 0
KBO1 190946Z 20010KT 07/M02 A3002 RMK A01 T00671021  RH  054%=      5-min Rain = 0
KBO1 190947Z 20010KT 07/M02 A3002 RMK A01 T00651021  RH  054%=      5-min Rain = 0
KBO1 190948Z 21010KT 06/M02 A3002 RMK A01 T00631021  RH  055%=      5-min Rain = 0
KBO1 190949Z 21010KT 06/M02 A3002 RMK A01 T00621021  RH  055%=      5-min Rain = 0
KBO1 190950Z 21009KT 06/M02 A3002 RMK A01 T00601022  RH  056%=      5-min Rain = 0
KBO1 190951Z 21009KT 06/M02 A3002 RMK A01 T00581022  RH  056%=      5-min Rain = 0
KBO1 190952Z 21009KT 06/M02 A3002 RMK A01 T00561022  RH  057%=      5-min Rain = 0
KBO1 190953Z 21009KT 05/M02 A3002 RMK A01 T00531023  RH  058%=      5-min Rain = 0
KBO1 190954Z 21009KT 05/M02 A3002 RMK A01 T00511023  RH  059%=      5-min Rain = 0
KBO1 190955Z 21009KT 05/M02 A3002 RMK A01 T00481023  RH  060%=      5-min Rain = 0
KBO1 190956Z 21009KT 05/M02 A3002 RMK A01 T00461024  RH  060%=      5-min Rain = 0
KBO1 190957Z 21009KT 04/M02 A3002 RMK A01 T00441024  RH  061%=      5-min Rain = 0
KBO1 190958Z 21009KT 04/M03 A3001 RMK A01 T00421025  RH  062%=      5-min Rain = 0
KBO1 190959Z 21009KT 04/M03 A3001 RMK A01 T00401025  RH  062%=      5-min Rain = 0
KBO1 191000Z 21009KT 04/M03 A3001 RMK A01 T00381026  RH  063%=      5-min Rain = 0
KBO1 191001Z 21009KT 04/M03 A3001 RMK A01 T00371026  RH  064%=      5-min Rain = 0
KBO1 191002Z 21010KT 04/M03 A3001 RMK A01 T00361026  RH  064%=      5-min Rain = 0
KBO1 191003Z 21009KT 04/M03 A3001 RMK A01 T00361026  RH  064%=      5-min Rain = 0
KBO1 191004Z 21009KT 04/M03 A3001 RMK A01 T00361026  RH  064%=      5-min Rain = 0
KBO1 191005Z 21010KT 04/M03 A3001 RMK A01 T00351026  RH  064%=      5-min Rain = 0
KBO1 191006Z 21010KT 03/M03 A3001 RMK A01 T00341026  RH  064%=      5-min Rain = 0
KBO1 191007Z 20010KT 03/M03 A3001 RMK A01 T00341026  RH  065%=      5-min Rain = 0
KBO1 191008Z 21010KT 04/M03 A3001 RMK A01 T00351025  RH  065%=      5-min Rain = 0
KBO1 191009Z 21009KT 04/M02 A3001 RMK A01 T00371024  RH  064%=      5-min Rain = 0
KBO1 191010Z 20010KT 04/M02 A3001 RMK A01 T00411022  RH  064%=      5-min Rain = 0
KBO1 191012Z 20011KT 05/M02 A3001 RMK A01 T00491018  RH  061%=      5-min Rain = 0
KBO1 191013Z 20011KT 06/M02 A30 RMK A01 T00551018  RH  059%=      5-min Rain = 0
KBO1 191014Z 20010KT 06/M02 A30 RMK A01 T00601018  RH  057%=      5-min Rain = 0
KBO1 191015Z 20010KT 06/M02 A30 RMK A01 T00641018  RH  056%=      5-min Rain = 0
KBO1 191016Z 20011KT 07/M02 A30 RMK A01 T00651019  RH  055%=      5-min Rain = 0
KBO1 191017Z 20010KT 07/M02 A30 RMK A01 T00671019  RH  054%=      5-min Rain = 0
KBO1 191018Z 20011KT 07/M02 A30 RMK A01 T00691020  RH  053%=      5-min Rain = 0
KBO1 191019Z 20011KT 07/M02 A30 RMK A01 T00691020  RH  053%=      5-min Rain = 0
KBO1 191020Z 20010KT 07/M02 A30 RMK A01 T00691021  RH  053%=      5-min Rain = 0
KBO1 191021Z 20010KT 07/M02 A30 RMK A01 T00701021  RH  052%=      5-min Rain = 0
KBO1 191022Z 20010KT 07/M02 A30 RMK A01 T00701021  RH  052%=      5-min Rain = 0
KBO1 191023Z 20010KT 07/M02 A30 RMK A01 T00701022  RH  052%=      5-min Rain = 0
KBO1 191024Z 20010KT 07/M02 A30 RMK A01 T00691022  RH  052%=      5-min Rain = 0
KBO1 191025Z 20010KT 07/M02 A30 RMK A01 T00691022  RH  052%=      5-min Rain = 0
KBO1 191026Z 20010KT 07/M02 A30 RMK A01 T00681022  RH  052%=      5-min Rain = 0
KBO1 191027Z 20010KT 07/M02 A30 RMK A01 T00681023  RH  052%=      5-min Rain = 0
KBO1 191028Z 20010KT 07/M02 A30 RMK A01 T00671023  RH  053%=      5-min Rain = 0
KBO1 191029Z 20010KT 07/M02 A30 RMK A01 T00671023  RH  053%=      5-min Rain = 0
KBO1 191030Z 20011KT 07/M02 A30 RMK A01 T00661023  RH  053%=      5-min Rain = 0
KBO1 191031Z 20011KT 07/M02 A30 RMK A01 T00661023  RH  053%=      5-min Rain = 0
KBO1 191032Z 20012KT 07/M02 A30 RMK A01 T00651023  RH  053%=      5-min Rain = 0
KBO1 191033Z 20012KT 07/M02 A30 RMK A01 T00651024  RH  053%=      5-min Rain = 0
KBO1 191034Z 19012KT 06/M02 A30 RMK A01 T00641024  RH  053%=      5-min Rain = 0
KBO1 191035Z 19011KT 06/M02 A30 RMK A01 T00631024  RH  054%=      5-min Rain = 0
KBO1 191036Z 19012KT 06/M02 A30 RMK A01 T00621024  RH  054%=      5-min Rain = 0
KBO1 191037Z 19012KT 06/M02 A30 RMK A01 T00621024  RH  054%=      5-min Rain = 0
KBO1 191038Z 19011KT 06/M03 A30 RMK A01 T00611025  RH  054%=      5-min Rain = 0
KBO1 191039Z 19011KT 06/M02 A30 RMK A01 T00601024  RH  054%=      5-min Rain = 0
KBO1 191040Z 19011KT 06/M03 A30 RMK A01 T00601025  RH  055%=      5-min Rain = 0
KBO1 191041Z 19011KT 06/M03 A30 RMK A01 T00591025  RH  055%=      5-min Rain = 0
KBO1 191042Z 19011KT 06/M03 A30 RMK A01 T00581025  RH  055%=      5-min Rain = 0
KBO1 191043Z 20011KT 06/M03 A30 RMK A01 T00571026  RH  055%=      5-min Rain = 0
KBO1 191044Z 20010KT 06/M03 A30 RMK A01 T00561026  RH  056%=      5-min Rain = 0
KBO1 191045Z 20011KT 06/M03 A30 RMK A01 T00561026  RH  056%=      5-min Rain = 0
KBO1 191046Z 20011KT 06/M03 A30 RMK A01 T00561025  RH  056%=      5-min Rain = 0
KBO1 191047Z 20012KT 06/M03 A30 RMK A01 T00561025  RH  056%=      5-min Rain = 0
KBO1 191048Z 20012KT 06/M02 A30 RMK A01 T00581024  RH  055%=      5-min Rain = 0
KBO1 191049Z 20013KT 06/M02 A2999 RMK A01 T00611023  RH  055%=      5-min Rain = 0
KBO1 191050Z 20014KT 07/M02 A2999 RMK A01 T00651022  RH  054%=      5-min Rain = 0
KBO1 191051Z 20014KT 07/M02 A2999 RMK A01 T00671022  RH  053%=      5-min Rain = 0
KBO1 191052Z 20014KT 07/M02 A2999 RMK A01 T00681022  RH  053%=      5-min Rain = 0
KBO1 191053Z 20014KT 07/M02 A2999 RMK A01 T00701021  RH  052%=      5-min Rain = 0
KBO1 191054Z 20014KT 07/M02 A2999 RMK A01 T00701022  RH  052%=      5-min Rain = 0
KBO1 191055Z 20014KT 07/M02 A2999 RMK A01 T00711021  RH  052%=      5-min Rain = 0
KBO1 191056Z 20014KT 07/M02 A2999 RMK A01 T00711022  RH  052%=      5-min Rain = 0
KBO1 191057Z 20014KT 07/M02 A2999 RMK A01 T00721021  RH  052%=      5-min Rain = 0
KBO1 191058Z 20014KT 07/M02 A2999 RMK A01 T00731021  RH  051%=      5-min Rain = 0
KBO1 191059Z 20014KT 07/M02 A2999 RMK A01 T00741021  RH  051%=      5-min Rain = 0
KBO1 191100Z 20014KT 07/M02 A2999 RMK A01 T00741021  RH  051%=      5-min Rain = 0
KBO1 191101Z 20014KT 07/M02 A2999 RMK A01 T00741021  RH  051%=      5-min Rain = 0
KBO1 191102Z 20015KT 08/M02 A2999 RMK A01 T00751021  RH  050%=      5-min Rain = 0
KBO1 191103Z 20015KT 08/M02 A2999 RMK A01 T00761021  RH  050%=      5-min Rain = 0
KBO1 191104Z 20015KT 08/M02 A2999 RMK A01 T00781021  RH  049%=      5-min Rain = 0
KBO1 191105Z 20015KT 08/M02 A2999 RMK A01 T00791021  RH  049%=      5-min Rain = 0
KBO1 191106Z 20015KT 08/M02 A2999 RMK A01 T00801021  RH  049%=      5-min Rain = 0
KBO1 191107Z 20015KT 08/M02 A2999 RMK A01 T00821021  RH  048%=      5-min Rain = 0
KBO1 191108Z 20015KT 08/M02 A2999 RMK A01 T00831021  RH  048%=      5-min Rain = 0
KBO1 191109Z 20015KT 08/M02 A2999 RMK A01 T00841021  RH  048%=      5-min Rain = 0
KBO1 191110Z 20015KT 08/M02 A2999 RMK A01 T00841021  RH  048%=      5-min Rain = 0
KBO1 191111Z 20015KT 08/M02 A2999 RMK A01 T00841021  RH  048%=      5-min Rain = 0
KBO1 191112Z 20015KT 08/M02 A2999 RMK A01 T00841021  RH  048%=      5-min Rain = 0
KBO1 191113Z 20015KT 08/M02 A2999 RMK A01 T00841021  RH  048%=      5-min Rain = 0
KBO1 191114Z 20015KT 08/M02 A2999 RMK A01 T00841021  RH  048%=      5-min Rain = 0
KBO1 191115Z 20015KT 08/M02 A2999 RMK A01 T00841021  RH  047%=      5-min Rain = 0
KBO1 191116Z 20015KT 09/M02 A2999 RMK A01 T00851021  RH  047%=      5-min Rain = 0
KBO1 191117Z 20015KT 09/M02 A2999 RMK A01 T00851021  RH  047%=      5-min Rain = 0
KBO1 191118Z 20015KT 09/M02 A2999 RMK A01 T00851021  RH  047%=      5-min Rain = 0
KBO1 191119Z 20014KT 08/M02 A2999 RMK A01 T00841022  RH  047%=      5-min Rain = 0
KBO1 191120Z 20014KT 08/M02 A2999 RMK A01 T00841021  RH  048%=      5-min Rain = 0
KBO1 191121Z 20014KT 08/M02 A2999 RMK A01 T00831021  RH  048%=      5-min Rain = 0
KBO1 191122Z 20014KT 08/M02 A2999 RMK A01 T00831022  RH  048%=      5-min Rain = 0
KBO1 191123Z 20014KT 08/M02 A2999 RMK A01 T00821022  RH  048%=      5-min Rain = 0
KBO1 191124Z 20014KT 08/M02 A2999 RMK A01 T00821021  RH  048%=      5-min Rain = 0
KBO1 191125Z 20014KT 08/M02 A2999 RMK A01 T00821021  RH  048%=      5-min Rain = 0
KBO1 191126Z 20014KT 08/M02 A2999 RMK A01 T00821021  RH  048%=      5-min Rain = 0
KBO1 191127Z 20014KT 08/M02 A2999 RMK A01 T00821021  RH  048%=      5-min Rain = 0
KBO1 191128Z 20013KT 08/M02 A2999 RMK A01 T00821021  RH  048%=      5-min Rain = 0
KBO1 191129Z 20013KT 08/M02 A2999 RMK A01 T00821020  RH  049%=      5-min Rain = 0
KBO1 191130Z 20013KT 08/M02 A2999 RMK A01 T00811020  RH  049%=      5-min Rain = 0
KBO1 191131Z 20012KT 08/M02 A2999 RMK A01 T00811020  RH  049%=      5-min Rain = 0
KBO1 191132Z 20012KT 08/M02 A2999 RMK A01 T00801020  RH  049%=      5-min Rain = 0
KBO1 191133Z 20013KT 08/M02 A2999 RMK A01 T00801020  RH  049%=      5-min Rain = 0
KBO1 191134Z 20012KT 08/M02 A2999 RMK A01 T00801020  RH  049%=      5-min Rain = 0
KBO1 191135Z 20012KT 08/M02 A2999 RMK A01 T00801020  RH  049%=      5-min Rain = 0
KBO1 191136Z 20012KT 08/M02 A2999 RMK A01 T00801019  RH  049%=      5-min Rain = 0
KBO1 191137Z 20012KT 08/M02 A2999 RMK A01 T00801020  RH  049%=      5-min Rain = 0
KBO1 191138Z 20012KT 08/M02 A2999 RMK A01 T00801020  RH  049%=      5-min Rain = 0
KBO1 191139Z 20012KT 08/M02 A2999 RMK A01 T00801019  RH  049%=      5-min Rain = 0
KBO1 191140Z 20012KT 08/M02 A2999 RMK A01 T00801020  RH  050%=      5-min Rain = 0
KBO1 191141Z 20012KT 08/M02 A2999 RMK A01 T00791020  RH  050%=      5-min Rain = 0
KBO1 191142Z 20012KT 08/M02 A2999 RMK A01 T00771020  RH  050%=      5-min Rain = 0
KBO1 191143Z 20012KT 08/M02 A2999 RMK A01 T00761020  RH  050%=      5-min Rain = 0
KBO1 191144Z 20011KT 08/M02 A2999 RMK A01 T00751020  RH  051%=      5-min Rain = 0
KBO1 191145Z 20012KT 07/M02 A2999 RMK A01 T00741021  RH  051%=      5-min Rain = 0
KBO1 191146Z 20012KT 07/M02 A2999 RMK A01 T00731021  RH  051%=      5-min Rain = 0
KBO1 191147Z 20012KT 07/M02 A2998 RMK A01 T00721020  RH  052%=      5-min Rain = 0
KBO1 191148Z 20012KT 07/M02 A2998 RMK A01 T00711021  RH  052%=      5-min Rain = 0
KBO1 191149Z 20012KT 07/M02 A2998 RMK A01 T00701021  RH  052%=      5-min Rain = 0
KBO1 191150Z 20012KT 07/M02 A2998 RMK A01 T00691021  RH  053%=      5-min Rain = 0
KBO1 191151Z 20012KT 07/M02 A2998 RMK A01 T00681021  RH  053%=      5-min Rain = 0
KBO1 191152Z 20011KT 07/M02 A2998 RMK A01 T00661022  RH  053%=      5-min Rain = 0
KBO1 191153Z 20011KT 07/M02 A2998 RMK A01 T00651022  RH  054%=      5-min Rain = 0
KBO1 191154Z 20011KT 07/M02 A2998 RMK A01 T00651022  RH  054%=      5-min Rain = 0
KBO1 191155Z 20011KT 06/M02 A2998 RMK A01 T00631023  RH  054%=      5-min Rain = 0
KBO1 191156Z 20011KT 06/M02 A2998 RMK A01 T00621022  RH  055%=      5-min Rain = 0
KBO1 191157Z 20011KT 06/M02 A2998 RMK A01 T00621022  RH  055%=      5-min Rain = 0
KBO1 191158Z 20011KT 06/M02 A2998 RMK A01 T00611022  RH  055%=      5-min Rain = 0
KBO1 191159Z 20011KT 06/M02 A2998 RMK A01 T00611021  RH  055%=      5-min Rain = 0
KBO1 191200Z 20011KT 06/M02 A2998 RMK A01 T00601022  RH  056%=      5-min Rain = 0
KBO1 191201Z 20011KT 06/M02 A2998 RMK A01 T00601021  RH  056%=      5-min Rain = 0
KBO1 191202Z 20011KT 06/M02 A2998 RMK A01 T00611021  RH  056%=      5-min Rain = 0
KBO1 191203Z 20012KT 06/M02 A2998 RMK A01 T00621020  RH  056%=      5-min Rain = 0
KBO1 191204Z 20012KT 06/M02 A2998 RMK A01 T00621020  RH  056%=      5-min Rain = 0
KBO1 191205Z 20013KT 06/M02 A2998 RMK A01 T00641019  RH  056%=      5-min Rain = 0
KBO1 191206Z 20013KT 07/M02 A2998 RMK A01 T00651019  RH  055%=      5-min Rain = 0
KBO1 191207Z 20012KT 07/M02 A2998 RMK A01 T00661019  RH  055%=      5-min Rain = 0
KBO1 191208Z 20012KT 07/M02 A2997 RMK A01 T00661019  RH  055%=      5-min Rain = 0
KBO1 191209Z 20012KT 07/M02 A2997 RMK A01 T00671019  RH  054%=      5-min Rain = 0
KBO1 191210Z 20012KT 07/M02 A2997 RMK A01 T00661019  RH  055%=      5-min Rain = 0
KBO1 191211Z 20011KT 07/M02 A2997 RMK A01 T00651019  RH  055%=      5-min Rain = 0
KBO1 191212Z 20012KT 06/M02 A2997 RMK A01 T00641019  RH  055%=      5-min Rain = 0
KBO1 191213Z 20011KT 06/M02 A2997 RMK A01 T00631020  RH  055%=      5-min Rain = 0
KBO1 191214Z 20012KT 06/M02 A2997 RMK A01 T00621020  RH  056%=      5-min Rain = 0
KBO1 191215Z 20012KT 06/M02 A2997 RMK A01 T00621019  RH  056%=      5-min Rain = 0
KBO1 191216Z 20012KT 06/M02 A2997 RMK A01 T00621019  RH  056%=      5-min Rain = 0
KBO1 191217Z 20012KT 06/M02 A2997 RMK A01 T00631019  RH  056%=      5-min Rain = 0
KBO1 191218Z 20012KT 06/M02 A2997 RMK A01 T00631019  RH  056%=      5-min Rain = 0
KBO1 191219Z 20011KT 06/M02 A2997 RMK A01 T00631019  RH  056%=      5-min Rain = 0
KBO1 191220Z 20012KT 06/M02 A2997 RMK A01 T00621020  RH  056%=      5-min Rain = 0
KBO1 191221Z 20012KT 06/M02 A2997 RMK A01 T00611020  RH  056%=      5-min Rain = 0
KBO1 191222Z 20012KT 06/M02 A2997 RMK A01 T00611020  RH  056%=      5-min Rain = 0
KBO1 191223Z 20012KT 06/M02 A2998 RMK A01 T00611019  RH  056%=      5-min Rain = 0
KBO1 191224Z 20012KT 06/M02 A2998 RMK A01 T00611019  RH  056%=      5-min Rain = 0
KBO1 191225Z 21013KT 06/M02 A2998 RMK A01 T00621019  RH  056%=      5-min Rain = 0
KBO1 191226Z 21013KT 06/M02 A2998 RMK A01 T00631018  RH  056%=      5-min Rain = 0
KBO1 191227Z 20013KT 06/M02 A2998 RMK A01 T00641018  RH  056%=      5-min Rain = 0
KBO1 191228Z 21012KT 07/M02 A2998 RMK A01 T00651017  RH  056%=      5-min Rain = 0
KBO1 191229Z 21012KT 07/M02 A2998 RMK A01 T00661017  RH  055%=      5-min Rain = 0
KBO1 191230Z 21011KT 07/M02 A2998 RMK A01 T00671016  RH  055%=      5-min Rain = 0
KBO1 191231Z 21011KT 07/M02 A2998 RMK A01 T00661017  RH  055%=      5-min Rain = 0
KBO1 191232Z 21011KT 06/M02 A2998 RMK A01 T00641018  RH  055%=      5-min Rain = 0
KBO1 191233Z 21011KT 06/M02 A2998 RMK A01 T00621019  RH  056%=      5-min Rain = 0
KBO1 191234Z 22011KT 06/M02 A2998 RMK A01 T00601020  RH  057%=      5-min Rain = 0
KBO1 191235Z 22011KT 06/M02 A2998 RMK A01 T00581020  RH  057%=      5-min Rain = 0
KBO1 191236Z 22010KT 06/M02 A2998 RMK A01 T00561020  RH  058%=      5-min Rain = 0
KBO1 191237Z 22010KT 05/M02 A2998 RMK A01 T00541021  RH  059%=      5-min Rain = 0
KBO1 191238Z 22011KT 05/M02 A2998 RMK A01 T00521021  RH  059%=      5-min Rain = 0
KBO1 191239Z 22011KT 05/M02 A2998 RMK A01 T00511021  RH  060%=      5-min Rain = 0
KBO1 191240Z 22011KT 05/M02 A2998 RMK A01 T00491020  RH  061%=      5-min Rain = 0
KBO1 191241Z 22011KT 05/M02 A2998 RMK A01 T00491019  RH  061%=      5-min Rain = 0
KBO1 191242Z 23011KT 05/M02 A2998 RMK A01 T00481019  RH  062%=      5-min Rain = 0
KBO1 191243Z 23011KT 05/M02 A2998 RMK A01 T00471019  RH  062%=      5-min Rain = 0
KBO1 191244Z 23011KT 05/M02 A2998 RMK A01 T00461020  RH  062%=      5-min Rain = 0
KBO1 191245Z 23011KT 04/M02 A2998 RMK A01 T00441020  RH  063%=      5-min Rain = 0
KBO1 191246Z 23012KT 04/M02 A2998 RMK A01 T00421020  RH  064%=      5-min Rain = 0
KBO1 191247Z 23012KT 04/M02 A2998 RMK A01 T00411020  RH  064%=      5-min Rain = 0
KBO1 191248Z 23012KT 04/M02 A2998 RMK A01 T00411020  RH  064%=      5-min Rain = 0
KBO1 191249Z 23012KT 04/M02 A2998 RMK A01 T00411020  RH  065%=      5-min Rain = 0
KBO1 191250Z 23011KT 04/M02 A2998 RMK A01 T00411019  RH  065%=      5-min Rain = 0
KBO1 191251Z 23012KT 04/M02 A2998 RMK A01 T00401019  RH  065%=      5-min Rain = 0
KBO1 191252Z 23012KT 04/M02 A2998 RMK A01 T00401019  RH  065%=      5-min Rain = 0
KBO1 191253Z 23012KT 04/M02 A2998 RMK A01 T00401019  RH  065%=      5-min Rain = 0
KBO1 191254Z 23012KT 04/M02 A2998 RMK A01 T00401019  RH  065%=      5-min Rain = 0
KBO1 191255Z 23012KT 04/M02 A2998 RMK A01 T00401019  RH  065%=      5-min Rain = 0
KBO1 191256Z 23012KT 04/M02 A2998 RMK A01 T00401019  RH  065%=      5-min Rain = 0
KBO1 191257Z 22012KT 04/M02 A2998 RMK A01 T00401019  RH  065%=      5-min Rain = 0
KBO1 191258Z 22012KT 04/M02 A2998 RMK A01 T00401020  RH  065%=      5-min Rain = 0
KBO1 191259Z 22011KT 04/M02 A2998 RMK A01 T00401019  RH  065%=      5-min Rain = 0
KBO1 191300Z 22011KT 04/M02 A2998 RMK A01 T00401019  RH  065%=      5-min Rain = 0
KBO1 191301Z 23011KT 04/M02 A2997 RMK A01 T00401019  RH  065%=      5-min Rain = 0
KBO1 191302Z 22011KT 04/M02 A2997 RMK A01 T00401019  RH  065%=      5-min Rain = 0
KBO1 191303Z 22011KT 04/M02 A2997 RMK A01 T00401019  RH  065%=      5-min Rain = 0
KBO1 191304Z 22012KT 04/M02 A2997 RMK A01 T00411018  RH  065%=      5-min Rain = 0
KBO1 191305Z 22012KT 04/M02 A2997 RMK A01 T00421018  RH  065%=      5-min Rain = 0
KBO1 191306Z 22012KT 04/M02 A2997 RMK A01 T00431018  RH  065%=      5-min Rain = 0
KBO1 191307Z 22012KT 04/M02 A2997 RMK A01 T00441018  RH  064%=      5-min Rain = 0
KBO1 191308Z 22011KT 04/M02 A2997 RMK A01 T00441017  RH  064%=      5-min Rain = 0
KBO1 191309Z 22011KT 04/M02 A2997 RMK A01 T00441018  RH  064%=      5-min Rain = 0
KBO1 191310Z 22011KT 05/M02 A2997 RMK A01 T00451018  RH  064%=      5-min Rain = 0
KBO1 191311Z 22011KT 05/M02 A2997 RMK A01 T00451018  RH  063%=      5-min Rain = 0
KBO1 191312Z 22011KT 05/M02 A2997 RMK A01 T00461018  RH  063%=      5-min Rain = 0
KBO1 191313Z 22011KT 05/M02 A2997 RMK A01 T00461019  RH  063%=      5-min Rain = 0
KBO1 191314Z 22010KT 05/M02 A2997 RMK A01 T00461019  RH  063%=      5-min Rain = 0
KBO1 191315Z 22010KT 05/M02 A2997 RMK A01 T00451019  RH  063%=      5-min Rain = 0
KBO1 191316Z 22010KT 05/M02 A2997 RMK A01 T00451019  RH  063%=      5-min Rain = 0
KBO1 191317Z 22010KT 04/M02 A2997 RMK A01 T00441019  RH  063%=      5-min Rain = 0
KBO1 191318Z 22010KT 04/M02 A2997 RMK A01 T00441019  RH  063%=      5-min Rain = 0
KBO1 191319Z 22010KT 04/M02 A2997 RMK A01 T00441020  RH  063%=      5-min Rain = 0
KBO1 191320Z 22010KT 04/M02 A2997 RMK A01 T00441020  RH  063%=      5-min Rain = 0
KBO1 191321Z 22010KT 04/M02 A2997 RMK A01 T00441019  RH  064%=      5-min Rain = 0
KBO1 191322Z 22010KT 04/M02 A2997 RMK A01 T00431020  RH  064%=      5-min Rain = 0
KBO1 191323Z 22010KT 04/M02 A2997 RMK A01 T00431020  RH  064%=      5-min Rain = 0
KBO1 191324Z 22009KT 04/M02 A2997 RMK A01 T00431020  RH  064%=      5-min Rain = 0
KBO1 191325Z 22009KT 04/M02 A2997 RMK A01 T00421020  RH  064%=      5-min Rain = 0
KBO1 191326Z 22010KT 04/M02 A2997 RMK A01 T00411020  RH  064%=      5-min Rain = 0
KBO1 191327Z 22009KT 04/M02 A2997 RMK A01 T00411021  RH  064%=      5-min Rain = 0
KBO1 191328Z 22009KT 04/M02 A2997 RMK A01 T00411020  RH  064%=      5-min Rain = 0
KBO1 191329Z 22009KT 04/M02 A2997 RMK A01 T00411021  RH  064%=      5-min Rain = 0
KBO1 191330Z 21010KT 04/M02 A2997 RMK A01 T00411020  RH  064%=      5-min Rain = 0
KBO1 191331Z 21010KT 04/M02 A2997 RMK A01 T00411021  RH  064%=      5-min Rain = 0
KBO1 191332Z 21010KT 04/M02 A2997 RMK A01 T00411021  RH  064%=      5-min Rain = 0
KBO1 191333Z 21010KT 04/M02 A2997 RMK A01 T00411021  RH  064%=      5-min Rain = 0
KBO1 191334Z 21010KT 04/M02 A2997 RMK A01 T00421020  RH  064%=      5-min Rain = 0
KBO1 191335Z 21010KT 04/M02 A2997 RMK A01 T00431020  RH  063%=      5-min Rain = 0
KBO1 191336Z 21010KT 04/M02 A2997 RMK A01 T00441020  RH  063%=      5-min Rain = 0
KBO1 191337Z 21010KT 05/M02 A2997 RMK A01 T00451020  RH  063%=      5-min Rain = 0
KBO1 191338Z 21010KT 05/M02 A2997 RMK A01 T00471019  RH  062%=      5-min Rain = 0
KBO1 191339Z 21010KT 05/M02 A2997 RMK A01 T00481019  RH  062%=      5-min Rain = 0
KBO1 191340Z 21010KT 05/M02 A2997 RMK A01 T00491019  RH  061%=      5-min Rain = 0
KBO1 191341Z 21010KT 05/M02 A2997 RMK A01 T00491019  RH  061%=      5-min Rain = 0
KBO1 191342Z 21010KT 05/M02 A2997 RMK A01 T00501019  RH  061%=      5-min Rain = 0
KBO1 191343Z 21010KT 05/M02 A2997 RMK A01 T00511019  RH  060%=      5-min Rain = 0
KBO1 191344Z 21010KT 05/M02 A2997 RMK A01 T00521019  RH  060%=      5-min Rain = 0
KBO1 191345Z 21010KT 05/M02 A2997 RMK A01 T00521019  RH  060%=      5-min Rain = 0
KBO1 191346Z 21010KT 05/M02 A2997 RMK A01 T00521019  RH  060%=      5-min Rain = 0
KBO1 191347Z 21010KT 05/M02 A2997 RMK A01 T00531019  RH  060%=      5-min Rain = 0
KBO1 191348Z 21010KT 05/M02 A2997 RMK A01 T00541018  RH  059%=      5-min Rain = 0
KBO1 191349Z 21010KT 06/M02 A2997 RMK A01 T00551018  RH  059%=      5-min Rain = 0
KBO1 191350Z 21011KT 06/M02 A2997 RMK A01 T00571018  RH  059%=      5-min Rain = 0
KBO1 191351Z 21010KT 06/M02 A2997 RMK A01 T00581018  RH  058%=      5-min Rain = 0
KBO1 191352Z 21010KT 06/M02 A2997 RMK A01 T00601017  RH  058%=      5-min Rain = 0
KBO1 191353Z 21010KT 06/M02 A2997 RMK A01 T00621017  RH  057%=      5-min Rain = 0
KBO1 191354Z 21010KT 06/M02 A2997 RMK A01 T00641016  RH  057%=      5-min Rain = 0
KBO1 191355Z 21010KT 07/M02 A2997 RMK A01 T00651016  RH  056%=      5-min Rain = 0
KBO1 191356Z 21010KT 07/M02 A2997 RMK A01 T00671016  RH  056%=      5-min Rain = 0
KBO1 191357Z 20010KT 07/M02 A2997 RMK A01 T00691015  RH  055%=      5-min Rain = 0
KBO1 191358Z 20010KT 07/M02 A2997 RMK A01 T00701015  RH  055%=      5-min Rain = 0
KBO1 191359Z 21010KT 07/M02 A2997 RMK A01 T00721015  RH  054%=      5-min Rain = 0
KBO1 191400Z 21010KT 07/M02 A2997 RMK A01 T00731015  RH  054%=      5-min Rain = 0
KBO1 191401Z 21010KT 07/M01 A2997 RMK A01 T00741014  RH  053%=      5-min Rain = 0
KBO1 191402Z 21009KT 08/M01 A2997 RMK A01 T00751014  RH  053%=      5-min Rain = 0
KBO1 191403Z 21009KT 08/M01 A2997 RMK A01 T00761014  RH  053%=      5-min Rain = 0
KBO1 191404Z 21009KT 08/M01 A2997 RMK A01 T00761014  RH  053%=      5-min Rain = 0
KBO1 191405Z 21009KT 08/M01 A2997 RMK A01 T00771013  RH  053%=      5-min Rain = 0
KBO1 191406Z 21008KT 08/M01 A2997 RMK A01 T00771013  RH  053%=      5-min Rain = 0
KBO1 191407Z 21009KT 08/M01 A2997 RMK A01 T00781012  RH  053%=      5-min Rain = 0
KBO1 191408Z 21008KT 08/M01 A2997 RMK A01 T00781012  RH  053%=      5-min Rain = 0
KBO1 191409Z 21008KT 08/M01 A2997 RMK A01 T00791012  RH  053%=      5-min Rain = 0
KBO1 191410Z 21008KT 08/M01 A2997 RMK A01 T00801012  RH  052%=      5-min Rain = 0
KBO1 191411Z 21008KT 08/M01 A2997 RMK A01 T00801011  RH  052%=      5-min Rain = 0
KBO1 191412Z 21009KT 08/M01 A2997 RMK A01 T00811011  RH  052%=      5-min Rain = 0
KBO1 191413Z 22009KT 08/M01 A2997 RMK A01 T00831011  RH  052%=      5-min Rain = 0
KBO1 191414Z 22009KT 08/M01 A2998 RMK A01 T00841011  RH  051%=      5-min Rain = 0
KBO1 191415Z 22009KT 09/M01 A2998 RMK A01 T00851011  RH  051%=      5-min Rain = 0
KBO1 191416Z 22008KT 09/M01 A2998 RMK A01 T00861011  RH  050%=      5-min Rain = 0
KBO1 191417Z 22009KT 09/M01 A2998 RMK A01 T00871011  RH  050%=      5-min Rain = 0
KBO1 191418Z 22009KT 09/M01 A2998 RMK A01 T00881010  RH  050%=      5-min Rain = 0
KBO1 191419Z 22009KT 09/M01 A2998 RMK A01 T00891010  RH  050%=      5-min Rain = 0
KBO1 191420Z 22009KT 09/M01 A2998 RMK A01 T00901009  RH  050%=      5-min Rain = 0
KBO1 191421Z 22009KT 09/M01 A2998 RMK A01 T00901009  RH  050%=      5-min Rain = 0
KBO1 191422Z 21009KT 09/M01 A2998 RMK A01 T00921008  RH  050%=      5-min Rain = 0
KBO1 191423Z 21009KT 09/M01 A2998 RMK A01 T00931008  RH  049%=      5-min Rain = 0
KBO1 191424Z 21009KT 10/M01 A2998 RMK A01 T00951008  RH  049%=      5-min Rain = 0
KBO1 191425Z 21009KT 10/M01 A2998 RMK A01 T00961008  RH  048%=      5-min Rain = 0
KBO1 191426Z 21009KT 10/M01 A2998 RMK A01 T00981008  RH  048%=      5-min Rain = 0
KBO1 191427Z 21009KT 10/M01 A2998 RMK A01 T01001008  RH  047%=      5-min Rain = 0
KBO1 191428Z 21009KT 10/M01 A2998 RMK A01 T01011007  RH  047%=      5-min Rain = 0
KBO1 191429Z 21009KT 10/M01 A2998 RMK A01 T01011007  RH  047%=      5-min Rain = 0
KBO1 191430Z 21009KT 10/M01 A2998 RMK A01 T01021007  RH  047%=      5-min Rain = 0
KBO1 191431Z 21008KT 10/M01 A2998 RMK A01 T01031006  RH  047%=      5-min Rain = 0
KBO1 191432Z 21009KT 10/M01 A2998 RMK A01 T01041006  RH  046%=      5-min Rain = 0
KBO1 191433Z 20009KT 11/M01 A2998 RMK A01 T01051006  RH  046%=      5-min Rain = 0
KBO1 191434Z 20010KT 11/M01 A2998 RMK A01 T01051006  RH  046%=      5-min Rain = 0
KBO1 191435Z 20009KT 11/M01 A2998 RMK A01 T01071006  RH  046%=      5-min Rain = 0
KBO1 191436Z 20009KT 11/M01 A2998 RMK A01 T01081005  RH  046%=      5-min Rain = 0
KBO1 191437Z 20010KT 11/M00 A2998 RMK A01 T01091004  RH  045%=      5-min Rain = 0
KBO1 191438Z 19010KT 11/M00 A2998 RMK A01 T01111004  RH  045%=      5-min Rain = 0
KBO1 191439Z 19011KT 11/M00 A2998 RMK A01 T01131003  RH  045%=      5-min Rain = 0
KBO1 191440Z 20011KT 12/M00 A2998 RMK A01 T01151004  RH  044%=      5-min Rain = 0
KBO1 191441Z 20011KT 12/M01 A2997 RMK A01 T01171005  RH  043%=      5-min Rain = 0
KBO1 191442Z 20011KT 12/M01 A2997 RMK A01 T01181006  RH  042%=      5-min Rain = 0
KBO1 191443Z 20010KT 12/M01 A2997 RMK A01 T01191006  RH  042%=      5-min Rain = 0
KBO1 191444Z 20012KT 12/M01 A2997 RMK A01 T01191007  RH  042%=      5-min Rain = 0
KBO1 191445Z 20011KT 12/M01 A2997 RMK A01 T01221008  RH  041%=      5-min Rain = 0
KBO1 191446Z 20011KT 12/M01 A2997 RMK A01 T01241007  RH  040%=      5-min Rain = 0
KBO1 191447Z 20012KT 13/M01 A2997 RMK A01 T01261007  RH  040%=      5-min Rain = 0
KBO1 191448Z 20011KT 13/M01 A2997 RMK A01 T01271007  RH  039%=      5-min Rain = 0
KBO1 191449Z 20012KT 13/M01 A2997 RMK A01 T01281008  RH  039%=      5-min Rain = 0
KBO1 191450Z 19013KT 13/M01 A2997 RMK A01 T01301009  RH  038%=      5-min Rain = 0
KBO1 191451Z 19013KT 13/M01 A2997 RMK A01 T01301010  RH  038%=      5-min Rain = 0
KBO1 191452Z 19012KT 13/M01 A2997 RMK A01 T01301011  RH  038%=      5-min Rain = 0
KBO1 191453Z 19011KT 13/M01 A2997 RMK A01 T01311010  RH  038%=      5-min Rain = 0
KBO1 191454Z 19012KT 13/M01 A2997 RMK A01 T01311010  RH  038%=      5-min Rain = 0
KBO1 191455Z 19009KT 13/M01 A2997 RMK A01 T01301010  RH  038%=      5-min Rain = 0
KBO1 191456Z 19010KT 13/M01 A2997 RMK A01 T01291009  RH  039%=      5-min Rain = 0
KBO1 191457Z 19011KT 13/M01 A2997 RMK A01 T01281009  RH  039%=      5-min Rain = 0
KBO1 191458Z 19010KT 13/M01 A2997 RMK A01 T01281009  RH  039%=      5-min Rain = 0
KBO1 191459Z 19010KT 13/M01 A2997 RMK A01 T01291008  RH  039%=      5-min Rain = 0
KBO1 191500Z 19011KT 13/M01 A2997 RMK A01 T01311008  RH  038%=      5-min Rain = 0
KBO1 191501Z 20012KT 13/M01 A2997 RMK A01 T01331008  RH  038%=      5-min Rain = 0
KBO1 191502Z 19012KT 13/M01 A2997 RMK A01 T01331009  RH  037%=      5-min Rain = 0
KBO1 191503Z 20011KT 13/M01 A2997 RMK A01 T01341010  RH  037%=      5-min Rain = 0
KBO1 191504Z 19012KT 14/M01 A2997 RMK A01 T01361008  RH  037%=      5-min Rain = 0
KBO1 191505Z 20010KT 14/M01 A2997 RMK A01 T01371008  RH  037%=      5-min Rain = 0
KBO1 191506Z 20012KT 14/M01 A2997 RMK A01 T01391007  RH  036%=      5-min Rain = 0
KBO1 191507Z 20013KT 14/M01 A2997 RMK A01 T01411010  RH  035%=      5-min Rain = 0
KBO1 191508Z 20015KT 14/M01 A2997 RMK A01 T01421012  RH  035%=      5-min Rain = 0
KBO1 191509Z 20015KT 14/M01 A2997 RMK A01 T01431013  RH  034%=      5-min Rain = 0
KBO1 191510Z 20015KT 14/M01 A2997 RMK A01 T01441013  RH  034%=      5-min Rain = 0
KBO1 191511Z 20016KT 14/M01 A2997 RMK A01 T01441014  RH  034%=      5-min Rain = 0
KBO1 191512Z 20014KT 15/M01 A2997 RMK A01 T01451013  RH  034%=      5-min Rain = 0
KBO1 191513Z 20014KT 15/M01 A2997 RMK A01 T01451012  RH  034%=      5-min Rain = 0
KBO1 191514Z 20014KT 15/M01 A2997 RMK A01 T01471011  RH  034%=      5-min Rain = 0
KBO1 191515Z 20015KT 15/M01 A2997 RMK A01 T01471013  RH  033%=      5-min Rain = 0
KBO1 191516Z 20013KT 15/M01 A2997 RMK A01 T01471013  RH  033%=      5-min Rain = 0
KBO1 191517Z 20015KT 15/M01 A2997 RMK A01 T01481012  RH  033%=      5-min Rain = 0
KBO1 191518Z 20014KT 15/M01 A2997 RMK A01 T01481014  RH  033%=      5-min Rain = 0
KBO1 191519Z 20014KT 15/M01 A2997 RMK A01 T01491014  RH  033%=      5-min Rain = 0
KBO1 191520Z 20015KT 15/M02 A2997 RMK A01 T01491015  RH  032%=      5-min Rain = 0
KBO1 191521Z 20014KT 15/M02 A2997 RMK A01 T01491015  RH  032%=      5-min Rain = 0
KBO1 191522Z 20016KT 15/M01 A2997 RMK A01 T01501013  RH  033%=      5-min Rain = 0
KBO1 191523Z 19015KT 15/M01 A2997 RMK A01 T01511014  RH  032%=      5-min Rain = 0
KBO1 191524Z 19016KT 15/M02 A2997 RMK A01 T01511015  RH  032%=      5-min Rain = 0
KBO1 191525Z 20014KT 15/M01 A2997 RMK A01 T01511014  RH  032%=      5-min Rain = 0
KBO1 191526Z 20014KT 15/M01 A2997 RMK A01 T01511013  RH  032%=      5-min Rain = 0
KBO1 191527Z 19014KT 15/M01 A2997 RMK A01 T01521012  RH  032%=      5-min Rain = 0
KBO1 191528Z 20012KT 15/M01 A2997 RMK A01 T01531011  RH  033%=      5-min Rain = 0
KBO1 191529Z 20015KT 16/M01 A2997 RMK A01 T01551012  RH  032%=      5-min Rain = 0
KBO1 191530Z 20015KT 16/M01 A2997 RMK A01 T01551013  RH  032%=      5-min Rain = 0
KBO1 191531Z 20017KT 15/M02 A2997 RMK A01 T01541015  RH  031%=      5-min Rain = 0
KBO1 191532Z 20015KT 15/M02 A2997 RMK A01 T01531016  RH  031%=      5-min Rain = 0
KBO1 191533Z 20018KT 15/M02 A2997 RMK A01 T01531015  RH  032%=      5-min Rain = 0
KBO1 191534Z 20017KT 15/M02 A2997 RMK A01 T01531016  RH  031%=      5-min Rain = 0
KBO1 191535Z 20015KT 15/M02 A2998 RMK A01 T01521015  RH  032%=      5-min Rain = 0
KBO1 191536Z 20015KT 15/M02 A2997 RMK A01 T01521015  RH  032%=      5-min Rain = 0
KBO1 191537Z 20015KT 15/M02 A2997 RMK A01 T01521015  RH  032%=      5-min Rain = 0
KBO1 191538Z 20015KT 15/M02 A2997 RMK A01 T01521015  RH  032%=      5-min Rain = 0
KBO1 191539Z 20015KT 15/M02 A2997 RMK A01 T01511016  RH  032%=      5-min Rain = 0
KBO1 191540Z 20013KT 15/M02 A2997 RMK A01 T01511015  RH  032%=      5-min Rain = 0
KBO1 191541Z 19015KT 15/M01 A2997 RMK A01 T01511013  RH  032%=      5-min Rain = 0
KBO1 191542Z 20016KT 15/M01 A2997 RMK A01 T01521013  RH  032%=      5-min Rain = 0
KBO1 191543Z 20015KT 15/M01 A2997 RMK A01 T01521014  RH  032%=      5-min Rain = 0
KBO1 191544Z 20013KT 15/M01 A2997 RMK A01 T01521013  RH  032%=      5-min Rain = 0
KBO1 191545Z 20013KT 15/M01 A2997 RMK A01 T01531012  RH  032%=      5-min Rain = 0
KBO1 191546Z 20013KT 15/M01 A2997 RMK A01 T01531013  RH  032%=      5-min Rain = 0
KBO1 191547Z 20012KT 15/M01 A2997 RMK A01 T01531012  RH  032%=      5-min Rain = 0
KBO1 191548Z 21015KT 16/M01 A2998 RMK A01 T01551011  RH  032%=      5-min Rain = 0
KBO1 191549Z 20014KT 16/M01 A2998 RMK A01 T01561013  RH  031%=      5-min Rain = 0
KBO1 191550Z 20014KT 16/M01 A2998 RMK A01 T01561012  RH  032%=      5-min Rain = 0
KBO1 191551Z 20014KT 16/M01 A2998 RMK A01 T01561013  RH  031%=      5-min Rain = 0
KBO1 191552Z 21015KT 16/M01 A2998 RMK A01 T01561013  RH  031%=      5-min Rain = 0
KBO1 191553Z 19012KT 16/M01 A2998 RMK A01 T01561013  RH  031%=      5-min Rain = 0
KBO1 191554Z 20014KT 16/M01 A2998 RMK A01 T01561012  RH  031%=      5-min Rain = 0
KBO1 191555Z 20014KT 16/M01 A2998 RMK A01 T01571013  RH  031%=      5-min Rain = 0
KBO1 191556Z 20013KT 16/M01 A2998 RMK A01 T01571013  RH  031%=      5-min Rain = 0
KBO1 191557Z 20013KT 16/M01 A2998 RMK A01 T01571011  RH  032%=      5-min Rain = 0
KBO1 191558Z 20013KT 16/M01 A2998 RMK A01 T01571012  RH  031%=      5-min Rain = 0
KBO1 191559Z 20015KT 16/M01 A2998 RMK A01 T01571013  RH  031%=      5-min Rain = 0
KBO1 191600Z 20015KT 16/M02 A2998 RMK A01 T01551015  RH  031%=      5-min Rain = 0
KBO1 191601Z 20015KT 15/M02 A2998 RMK A01 T01531015  RH  032%=      5-min Rain = 0
KBO1 191602Z 20014KT 15/M02 A2998 RMK A01 T01511015  RH  032%=      5-min Rain = 0
KBO1 191603Z 20013KT 15/M01 A2998 RMK A01 T01511014  RH  032%=      5-min Rain = 0
KBO1 191604Z 20013KT 15/M01 A2998 RMK A01 T01521012  RH  032%=      5-min Rain = 0
KBO1 191605Z 20013KT 16/M01 A2998 RMK A01 T01551011  RH  032%=      5-min Rain = 0
KBO1 191606Z 21012KT 16/M01 A2998 RMK A01 T01571011  RH  032%=      5-min Rain = 0
KBO1 191607Z 20013KT 16/M01 A2998 RMK A01 T01581011  RH  031%=      5-min Rain = 0
KBO1 191608Z 20014KT 16/M01 A2998 RMK A01 T01601010  RH  031%=      5-min Rain = 0
KBO1 191609Z 20015KT 16/M01 A2998 RMK A01 T01631011  RH  031%=      5-min Rain = 0
KBO1 191610Z 20015KT 16/M01 A2998 RMK A01 T01631012  RH  030%=      5-min Rain = 0
KBO1 191611Z 21013KT 16/M01 A2998 RMK A01 T01641012  RH  030%=      5-min Rain = 0
KBO1 191612Z 21014KT 17/M01 A2998 RMK A01 T01651010  RH  030%=      5-min Rain = 0
KBO1 191613Z 21014KT 17/M01 A2998 RMK A01 T01661009  RH  030%=      5-min Rain = 0
KBO1 191614Z 20013KT 17/M01 A2998 RMK A01 T01671010  RH  030%=      5-min Rain = 0
KBO1 191615Z 20014KT 17/M01 A2998 RMK A01 T01681010  RH  030%=      5-min Rain = 0
KBO1 191616Z 20013KT 17/M01 A2997 RMK A01 T01691010  RH  030%=      5-min Rain = 0
KBO1 191617Z 20013KT 17/M01 A2997 RMK A01 T01691010  RH  029%=      5-min Rain = 0
KBO1 191618Z 20014KT 17/M01 A2997 RMK A01 T01711008  RH  030%=      5-min Rain = 0
KBO1 191619Z 20014KT 17/M01 A2997 RMK A01 T01721011  RH  029%=      5-min Rain = 0
KBO1 191620Z 20014KT 17/M01 A2997 RMK A01 T01731009  RH  029%=      5-min Rain = 0
KBO1 191621Z 20014KT 17/M01 A2997 RMK A01 T01731011  RH  029%=      5-min Rain = 0
KBO1 191622Z 21014KT 17/M01 A2997 RMK A01 T01721011  RH  029%=      5-min Rain = 0
KBO1 191623Z 20016KT 17/M01 A2997 RMK A01 T01721011  RH  029%=      5-min Rain = 0
KBO1 191624Z 20014KT 17/M01 A2997 RMK A01 T01731011  RH  029%=      5-min Rain = 0
KBO1 191625Z 20014KT 18/M01 A2997 RMK A01 T01751008  RH  029%=      5-min Rain = 0
KBO1 191626Z 20012KT 18/M01 A2997 RMK A01 T01771009  RH  028%=      5-min Rain = 0
KBO1 191627Z 20015KT 18/M01 A2997 RMK A01 T01791009  RH  028%=      5-min Rain = 0
KBO1 191628Z 21017KT 18/M01 A2997 RMK A01 T01811010  RH  027%=      5-min Rain = 0
KBO1 191629Z 21016KT 18/M01 A2997 RMK A01 T01821012  RH  027%=      5-min Rain = 0
KBO1 191630Z 20015KT 18/M01 A2997 RMK A01 T01821010  RH  027%=      5-min Rain = 0
KBO1 191631Z 20016KT 18/M01 A2997 RMK A01 T01841010  RH  027%=      5-min Rain = 0
KBO1 191632Z 21017KT 18/M01 A2997 RMK A01 T01841013  RH  026%=      5-min Rain = 0
KBO1 191633Z 21014KT 18/M01 A2997 RMK A01 T01821013  RH  027%=      5-min Rain = 0
KBO1 191634Z 20014KT 18/M01 A2997 RMK A01 T01801011  RH  027%=      5-min Rain = 0
KBO1 191635Z 20014KT 18/M01 A2997 RMK A01 T01821010  RH  027%=      5-min Rain = 0
KBO1 191636Z 20015KT 18/M01 A2996 RMK A01 T01831011  RH  027%=      5-min Rain = 0
KBO1 191637Z 20015KT 18/M01 A2997 RMK A01 T01831012  RH  027%=      5-min Rain = 0
KBO1 191638Z 20014KT 18/M01 A2996 RMK A01 T01821011  RH  027%=      5-min Rain = 0
KBO1 191639Z 19015KT 18/M01 A2997 RMK A01 T01811012  RH  027%=      5-min Rain = 0
KBO1 191640Z 20014KT 18/M01 A2996 RMK A01 T01811011  RH  027%=      5-min Rain = 0
KBO1 191641Z 20015KT 18/M01 A2996 RMK A01 T01811011  RH  027%=      5-min Rain = 0
KBO1 191642Z 20016KT 18/M01 A2996 RMK A01 T01801011  RH  027%=      5-min Rain = 0
KBO1 191643Z 20013KT 18/M01 A2996 RMK A01 T01801011  RH  027%=      5-min Rain = 0
KBO1 191644Z 20016KT 18/M01 A2996 RMK A01 T01801010  RH  027%=      5-min Rain = 0
KBO1 191645Z 20018KT 18/M01 A2996 RMK A01 T01791013  RH  027%=      5-min Rain = 0
KBO1 191646Z 20016KT 18/M01 A2996 RMK A01 T01781014  RH  027%=      5-min Rain = 0
KBO1 191647Z 20016KT 18/M01 A2996 RMK A01 T01781013  RH  027%=      5-min Rain = 0
KBO1 191648Z 20015KT 18/M01 A2996 RMK A01 T01781011  RH  028%=      5-min Rain = 0
KBO1 191649Z 20016KT 18/M01 A2996 RMK A01 T01791012  RH  027%=      5-min Rain = 0
KBO1 191650Z 20016KT 18/M01 A2996 RMK A01 T01791012  RH  027%=      5-min Rain = 0
KBO1 191651Z 20016KT 18/M01 A2996 RMK A01 T01781013  RH  027%=      5-min Rain = 0
KBO1 191652Z 20015KT 18/M01 A2996 RMK A01 T01781011  RH  028%=      5-min Rain = 0
KBO1 191653Z 20014KT 18/M01 A2996 RMK A01 T01781011  RH  028%=      5-min Rain = 0
KBO1 191654Z 20016KT 18/M01 A2996 RMK A01 T01791010  RH  028%=      5-min Rain = 0
KBO1 191655Z 20015KT 18/M01 A2996 RMK A01 T01781012  RH  027%=      5-min Rain = 0
KBO1 191656Z 20013KT 18/M01 A2996 RMK A01 T01781010  RH  028%=      5-min Rain = 0
KBO1 191657Z 19015KT 18/M01 A2996 RMK A01 T01791009  RH  028%=      5-min Rain = 0
KBO1 191658Z 21015KT 18/M01 A2996 RMK A01 T01801010  RH  027%=      5-min Rain = 0
KBO1 191659Z 19014KT 18/M01 A2996 RMK A01 T01811010  RH  027%=      5-min Rain = 0
KBO1 191700Z 19014KT 18/M01 A2996 RMK A01 T01821011  RH  027%=      5-min Rain = 0
KBO1 191701Z 20013KT 18/M01 A2996 RMK A01 T01831009  RH  027%=      5-min Rain = 0
KBO1 191702Z 20016KT 18/M01 A2996 RMK A01 T01841009  RH  027%=      5-min Rain = 0
KBO1 191703Z 21016KT 19/M01 A2996 RMK A01 T01861011  RH  026%=      5-min Rain = 0
KBO1 191704Z 21014KT 19/M01 A2996 RMK A01 T01871010  RH  026%=      5-min Rain = 0
KBO1 191705Z 21017KT 19/M01 A2996 RMK A01 T01891010  RH  026%=      5-min Rain = 0
KBO1 191706Z 21017KT 19/M01 A2995 RMK A01 T01901013  RH  025%=      5-min Rain = 0
KBO1 191707Z 21017KT 19/M01 A2995 RMK A01 T01891013  RH  025%=      5-min Rain = 0
KBO1 191708Z 21013KT 19/M01 A2996 RMK A01 T01911011  RH  025%=      5-min Rain = 0
KBO1 191709Z 21015KT 19/M01 A2995 RMK A01 T01931008  RH  026%=      5-min Rain = 0
KBO1 191710Z 20014KT 19/M01 A2995 RMK A01 T01941007  RH  026%=      5-min Rain = 0
KBO1 191711Z 20015KT 20/M01 A2995 RMK A01 T01951007  RH  026%=      5-min Rain = 0
KBO1 191712Z 20015KT 20/M01 A2995 RMK A01 T01951008  RH  025%=      5-min Rain = 0
KBO1 191713Z 21016KT 20/M01 A2995 RMK A01 T01951008  RH  025%=      5-min Rain = 0
KBO1 191714Z 20016KT 19/M01 A2995 RMK A01 T01941010  RH  025%=      5-min Rain = 0
KBO1 191715Z 20015KT 19/M01 A2995 RMK A01 T01941009  RH  025%=      5-min Rain = 0
KBO1 191716Z 20015KT 19/M01 A2995 RMK A01 T01941009  RH  025%=      5-min Rain = 0
KBO1 191717Z 20013KT 20/M01 A2995 RMK A01 T01961007  RH  025%=      5-min Rain = 0
KBO1 191718Z 21014KT 20/M00 A2995 RMK A01 T01991003  RH  026%=      5-min Rain = 0
KBO1 191719Z 21018KT 20/M01 A2995 RMK A01 T02021009  RH  024%=      5-min Rain = 0
KBO1 191720Z 20017KT 20/M01 A2995 RMK A01 T02021010  RH  024%=      5-min Rain = 0
KBO1 191721Z 20018KT 20/M01 A2995 RMK A01 T02021010  RH  024%=      5-min Rain = 0
KBO1 191722Z 20019KT 20/M01 A2995 RMK A01 T02031010  RH  024%=      5-min Rain = 0
KBO1 191723Z 21019KT 20/M01 A2994 RMK A01 T02041010  RH  024%=      5-min Rain = 0
KBO1 191724Z 20017KT 20/M01 A2994 RMK A01 T02031013  RH  023%=      5-min Rain = 0
KBO1 191725Z 21015KT 20/M01 A2994 RMK A01 T02021011  RH  024%=      5-min Rain = 0
KBO1 191726Z 20016KT 20/M01 A2994 RMK A01 T02041007  RH  024%=      5-min Rain = 0
KBO1 191727Z 20016KT 21/M01 A2994 RMK A01 T02061007  RH  024%=      5-min Rain = 0
KBO1 191728Z 20017KT 21/M01 A2994 RMK A01 T02081008  RH  024%=      5-min Rain = 0
KBO1 191729Z 20018KT 21/M01 A2994 RMK A01 T02071011  RH  023%=      5-min Rain = 0
KBO1 191730Z 20017KT 21/M01 A2994 RMK A01 T02051009  RH  024%=      5-min Rain = 0
KBO1 191731Z 21015KT 21/M01 A2994 RMK A01 T02051008  RH  024%=      5-min Rain = 0
KBO1 191732Z 20013KT 21/M01 A2994 RMK A01 T02061005  RH  024%=      5-min Rain = 0
KBO1 191733Z 19017KT 21/M01 A2994 RMK A01 T02081005  RH  024%=      5-min Rain = 0
KBO1 191734Z 20016KT 21/M01 A2994 RMK A01 T02101008  RH  023%=      5-min Rain = 0
KBO1 191735Z 20018KT 21/M01 A2994 RMK A01 T02111005  RH  024%=      5-min Rain = 0
KBO1 191736Z 20020KT 21/M01 A2994 RMK A01 T02121010  RH  023%=      5-min Rain = 0
KBO1 191737Z 21017KT 21/M01 A2994 RMK A01 T02111009  RH  023%=      5-min Rain = 0
KBO1 191738Z 21017KT 21/M01 A2994 RMK A01 T02111009  RH  023%=      5-min Rain = 0
KBO1 191739Z 21018KT 21/M01 A2994 RMK A01 T02111008  RH  023%=      5-min Rain = 0
KBO1 191740Z 21019KT 21/M01 A2994 RMK A01 T02101011  RH  023%=      5-min Rain = 0
KBO1 191741Z 21016KT 21/M01 A2994 RMK A01 T02091012  RH  023%=      5-min Rain = 0
KBO1 191742Z 21015KT 21/M01 A2993 RMK A01 T02081010  RH  023%=      5-min Rain = 0
KBO1 191743Z 20016KT 21/M01 A2993 RMK A01 T02091008  RH  023%=      5-min Rain = 0
KBO1 191744Z 20015G20KT 21/M01 A2993 RMK A01 T02111009  RH  023%=      5-min Rain = 0
KBO1 191745Z 21019KT 21/M01 A2993 RMK A01 T02131010  RH  022%=      5-min Rain = 0
KBO1 191746Z 21018KT 21/M01 A2993 RMK A01 T02131012  RH  022%=      5-min Rain = 0
KBO1 191747Z 21015G20KT 21/M01 A2993 RMK A01 T02131010  RH  022%=      5-min Rain = 0
KBO1 191748Z 19017KT 21/M01 A2993 RMK A01 T02141009  RH  022%=      5-min Rain = 0
KBO1 191749Z 19020KT 22/M01 A2993 RMK A01 T02151009  RH  022%=      5-min Rain = 0
KBO1 191750Z 19018KT 22/M01 A2993 RMK A01 T02161009  RH  022%=      5-min Rain = 0
KBO1 191751Z 21018KT 22/M01 A2993 RMK A01 T02161010  RH  022%=      5-min Rain = 0
KBO1 191752Z 21017KT 22/M01 A2993 RMK A01 T02161010  RH  022%=      5-min Rain = 0
KBO1 191753Z 21021KT 22/M01 A2993 RMK A01 T02181011  RH  022%=      5-min Rain = 0
KBO1 191754Z 21021KT 22/M01 A2993 RMK A01 T02181013  RH  021%=      5-min Rain = 0
KBO1 191755Z 22022KT 22/M02 A2993 RMK A01 T02171015  RH  021%=      5-min Rain = 0
KBO1 191756Z 22018KT 22/M02 A2993 RMK A01 T02171017  RH  021%=      5-min Rain = 0
KBO1 191757Z 21019KT 22/M02 A2993 RMK A01 T02161018  RH  021%=      5-min Rain = 0
KBO1 191758Z 22022KT 22/M02 A2993 RMK A01 T02171016  RH  021%=      5-min Rain = 0
KBO1 191759Z 21020KT 22/M02 A2993 RMK A01 T02181017  RH  021%=      5-min Rain = 0
KBO1 191800Z 21021KT 22/M02 A2993 RMK A01 T02161018  RH  021%=      5-min Rain = 0
KBO1 191801Z 22020KT 22/M02 A2992 RMK A01 T02161016  RH  021%=      5-min Rain = 0
KBO1 191802Z 21017KT 22/M02 A2992 RMK A01 T02161016  RH  021%=      5-min Rain = 0
KBO1 191803Z 21020KT 22/M01 A2992 RMK A01 T02171014  RH  021%=      5-min Rain = 0
KBO1 191804Z 21018KT 22/M02 A2992 RMK A01 T02191015  RH  021%=      5-min Rain = 0
KBO1 191805Z 22020G25KT 22/M02 A2992 RMK A01 T02201015  RH  021%=      5-min Rain = 0
KBO1 191806Z 22019G24KT 22/M02 A2992 RMK A01 T02211017  RH  020%=      5-min Rain = 0
KBO1 191807Z 22020KT 22/M02 A2992 RMK A01 T02201017  RH  020%=      5-min Rain = 0
KBO1 191808Z 22020KT 22/M02 A2992 RMK A01 T02201018  RH  020%=      5-min Rain = 0
KBO1 191809Z 21024KT 22/M02 A2992 RMK A01 T02211021  RH  020%=      5-min Rain = 0
KBO1 191810Z 21023KT 22/M02 A2992 RMK A01 T02201022  RH  020%=      5-min Rain = 0
KBO1 191811Z 22021KT 22/M02 A2992 RMK A01 T02201023  RH  020%=      5-min Rain = 0
KBO1 191812Z 22024KT 22/M02 A2992 RMK A01 T02191022  RH  020%=      5-min Rain = 0
KBO1 191813Z 23024KT 22/M03 A2992 RMK A01 T02171025  RH  020%=      5-min Rain = 0
KBO1 191814Z 22022KT 22/M03 A2992 RMK A01 T02151025  RH  020%=      5-min Rain = 0
KBO1 191815Z 21024G29KT 21/M02 A2992 RMK A01 T02141023  RH  020%=      5-min Rain = 0
KBO1 191816Z 22025KT 21/M02 A2991 RMK A01 T02141024  RH  020%=      5-min Rain = 0
KBO1 191817Z 22026KT 21/M02 A2992 RMK A01 T02141024  RH  020%=      5-min Rain = 0
KBO1 191818Z 22027KT 21/M02 A2991 RMK A01 T02141024  RH  020%=      5-min Rain = 0
KBO1 191819Z 22024KT 22/M02 A2991 RMK A01 T02151023  RH  020%=      5-min Rain = 0
KBO1 191820Z 23022KT 22/M02 A2992 RMK A01 T02161022  RH  020%=      5-min Rain = 0
KBO1 191821Z 21025G30KT 22/M02 A2991 RMK A01 T02171022  RH  020%=      5-min Rain = 0
KBO1 191822Z 21025KT 22/M02 A2991 RMK A01 T02171023  RH  020%=      5-min Rain = 0
KBO1 191823Z 21024KT 22/M02 A2991 RMK A01 T02181023  RH  020%=      5-min Rain = 0
KBO1 191824Z 22024G30KT 22/M02 A2991 RMK A01 T02171022  RH  020%=      5-min Rain = 0
KBO1 191825Z 22027KT 22/M02 A2991 RMK A01 T02191023  RH  020%=      5-min Rain = 0
KBO1 191826Z 22024KT 22/M02 A2991 RMK A01 T02191024  RH  020%=      5-min Rain = 0
KBO1 191827Z 23027KT 22/M02 A2991 RMK A01 T02191023  RH  020%=      5-min Rain = 0
KBO1 191828Z 23026KT 22/M02 A2991 RMK A01 T02191024  RH  019%=      5-min Rain = 0
KBO1 191829Z 23023KT 22/M02 A2991 RMK A01 T02191024  RH  020%=      5-min Rain = 0
KBO1 191830Z 22021KT 22/M02 A2991 RMK A01 T02221019  RH  020%=      5-min Rain = 0
KBO1 191831Z 22022KT 23/M02 A2991 RMK A01 T02251019  RH  019%=      5-min Rain = 0
KBO1 191832Z 22024KT 23/M02 A2991 RMK A01 T02271021  RH  019%=      5-min Rain = 0
KBO1 191833Z 22021KT 23/M02 A2991 RMK A01 T02261022  RH  019%=      5-min Rain = 0
KBO1 191834Z 21025G30KT 23/M02 A2991 RMK A01 T02261022  RH  019%=      5-min Rain = 0
KBO1 191835Z 22024KT 23/M02 A2991 RMK A01 T02251023  RH  019%=      5-min Rain = 0
KBO1 191836Z 21024KT 22/M02 A299 RMK A01 T02231024  RH  019%=      5-min Rain = 0
KBO1 191837Z 21024KT 22/M02 A299 RMK A01 T02231024  RH  019%=      5-min Rain = 0
KBO1 191838Z 22023KT 22/M02 A2991 RMK A01 T02231024  RH  019%=      5-min Rain = 0
KBO1 191839Z 21023KT 22/M03 A299 RMK A01 T02221025  RH  019%=      5-min Rain = 0
KBO1 191840Z 22022KT 22/M03 A299 RMK A01 T02201025  RH  019%=      5-min Rain = 0
KBO1 191841Z 21021KT 22/M02 A299 RMK A01 T02191023  RH  020%=      5-min Rain = 0
KBO1 191842Z 22022KT 22/M02 A299 RMK A01 T02221022  RH  019%=      5-min Rain = 0
KBO1 191843Z 22021G26KT 22/M02 A299 RMK A01 T02231021  RH  019%=      5-min Rain = 0
KBO1 191844Z 22026KT 23/M02 A299 RMK A01 T02271023  RH  019%=      5-min Rain = 0
KBO1 191845Z 22022KT 23/M02 A299 RMK A01 T02251024  RH  019%=      5-min Rain = 0
KBO1 191846Z 22022G28KT 22/M02 A299 RMK A01 T02241024  RH  019%=      5-min Rain = 0
KBO1 191847Z 22024KT 23/M02 A299 RMK A01 T02251024  RH  019%=      5-min Rain = 0
KBO1 191848Z 23022KT 23/M02 A299 RMK A01 T02261024  RH  019%=      5-min Rain = 0
KBO1 191849Z 23025KT 23/M02 A299 RMK A01 T02261024  RH  019%=      5-min Rain = 0
KBO1 191850Z 22025KT 23/M03 A2989 RMK A01 T02261026  RH  019%=      5-min Rain = 0
KBO1 191851Z 22024KT 23/M03 A2989 RMK A01 T02261026  RH  018%=      5-min Rain = 0
KBO1 191852Z 22024G30KT 23/M03 A2989 RMK A01 T02261026  RH  018%=      5-min Rain = 0
KBO1 191853Z 22026KT 23/M03 A2989 RMK A01 T02271027  RH  018%=      5-min Rain = 0
KBO1 191854Z 22023KT 23/M03 A2989 RMK A01 T02271027  RH  018%=      5-min Rain = 0
KBO1 191855Z 22024G29KT 23/M03 A2989 RMK A01 T02271028  RH  018%=      5-min Rain = 0
KBO1 191856Z 21022KT 23/M03 A2989 RMK A01 T02281027  RH  018%=      5-min Rain = 0
KBO1 191857Z 21027KT 23/M03 A2989 RMK A01 T02291031  RH  018%=      5-min Rain = 0
KBO1 191858Z 22027KT 23/M03 A2989 RMK A01 T02291032  RH  017%=      5-min Rain = 0
KBO1 191859Z 22024KT 23/M03 A2989 RMK A01 T02281031  RH  018%=      5-min Rain = 0
KBO1 191900Z 22024KT 23/M03 A2989 RMK A01 T02291031  RH  017%=      5-min Rain = 0
KBO1 191901Z 22023G28KT 23/M03 A2989 RMK A01 T02301031  RH  017%=      5-min Rain = 0
KBO1 191902Z 22021KT 23/M03 A2989 RMK A01 T02301030  RH  018%=      5-min Rain = 0
KBO1 191903Z 22023KT 23/M03 A2989 RMK A01 T02311028  RH  018%=      5-min Rain = 0
KBO1 191904Z 21019G24KT 23/M03 A2989 RMK A01 T02321027  RH  018%=      5-min Rain = 0
KBO1 191905Z 22021G26KT 24/M03 A2988 RMK A01 T02351026  RH  017%=      5-min Rain = 0
KBO1 191906Z 22023KT 24/M03 A2988 RMK A01 T02351032  RH  017%=      5-min Rain = 0
KBO1 191907Z 22024KT 23/M03 A2988 RMK A01 T02331032  RH  017%=      5-min Rain = 0
KBO1 191908Z 22020KT 23/M03 A2988 RMK A01 T02321031  RH  017%=      5-min Rain = 0
KBO1 191909Z 22023KT 23/M03 A2988 RMK A01 T02331029  RH  017%=      5-min Rain = 0
KBO1 191910Z 23021KT 23/M03 A2988 RMK A01 T02321030  RH  017%=      5-min Rain = 0
KBO1 191911Z 22018G23KT 23/M03 A2988 RMK A01 T02311027  RH  018%=      5-min Rain = 0
KBO1 191912Z 21018KT 23/M02 A2988 RMK A01 T02331020  RH  019%=      5-min Rain = 0
KBO1 191913Z 20020KT 23/M02 A2988 RMK A01 T02341018  RH  019%=      5-min Rain = 0
KBO1 191914Z 20018KT 23/M02 A2988 RMK A01 T02331018  RH  019%=      5-min Rain = 0
KBO1 191915Z 20017KT 23/M02 A2988 RMK A01 T02311017  RH  019%=      5-min Rain = 0
KBO1 191916Z 22019KT 23/M02 A2988 RMK A01 T02331018  RH  019%=      5-min Rain = 0
KBO1 191917Z 22018KT 23/M03 A2988 RMK A01 T02321028  RH  017%=      5-min Rain = 0
KBO1 191918Z 22018KT 23/M02 A2988 RMK A01 T02331023  RH  018%=      5-min Rain = 0
KBO1 191919Z 21021G26KT 24/M02 A2988 RMK A01 T02351023  RH  018%=      5-min Rain = 0
KBO1 191920Z 23022KT 24/M03 A2988 RMK A01 T02371028  RH  017%=      5-min Rain = 0
KBO1 191921Z 22021KT 24/M03 A2987 RMK A01 T02361029  RH  017%=      5-min Rain = 0
KBO1 191922Z 22023KT 24/M03 A2987 RMK A01 T02351026  RH  017%=      5-min Rain = 0
KBO1 191923Z 22021KT 24/M03 A2987 RMK A01 T02351029  RH  017%=      5-min Rain = 0
KBO1 191924Z 22019KT 23/M03 A2987 RMK A01 T02331031  RH  017%=      5-min Rain = 0
KBO1 191925Z 22018KT 23/M03 A2987 RMK A01 T02321027  RH  018%=      5-min Rain = 0
KBO1 191926Z 22020KT 23/M02 A2987 RMK A01 T02341024  RH  018%=      5-min Rain = 0
KBO1 191927Z 21021KT 24/M03 A2987 RMK A01 T02351026  RH  017%=      5-min Rain = 0
KBO1 191928Z 20024KT 23/M03 A2987 RMK A01 T02341027  RH  017%=      5-min Rain = 0
KBO1 191929Z 21020KT 23/M03 A2987 RMK A01 T02331028  RH  017%=      5-min Rain = 0
KBO1 191930Z 21018G26KT 23/M03 A2987 RMK A01 T02331026  RH  018%=      5-min Rain = 0
KBO1 191931Z 20025KT 24/M03 A2987 RMK A01 T02351029  RH  017%=      5-min Rain = 0
KBO1 191932Z 22021G27KT 24/M03 A2987 RMK A01 T02351030  RH  017%=      5-min Rain = 0
KBO1 191933Z 21017KT 23/M03 A2987 RMK A01 T02341028  RH  017%=      5-min Rain = 0
KBO1 191934Z 21022KT 24/M03 A2987 RMK A01 T02351026  RH  017%=      5-min Rain = 0
KBO1 191935Z 22021KT 24/M03 A2987 RMK A01 T02361027  RH  017%=      5-min Rain = 0
KBO1 191936Z 21020KT 24/M03 A2987 RMK A01 T02361027  RH  017%=      5-min Rain = 0
KBO1 191937Z 21020KT 24/M03 A2987 RMK A01 T02361027  RH  017%=      5-min Rain = 0
KBO1 191938Z 20023KT 24/M03 A2987 RMK A01 T02361028  RH  017%=      5-min Rain = 0
KBO1 191939Z 21022KT 24/M03 A2987 RMK A01 T02361029  RH  017%=      5-min Rain = 0
KBO1 191940Z 21019KT 24/M03 A2987 RMK A01 T02351030  RH  017%=      5-min Rain = 0
KBO1 191941Z 20023KT 24/M03 A2986 RMK A01 T02351029  RH  017%=      5-min Rain = 0
KBO1 191942Z 20019KT 24/M03 A2987 RMK A01 T02351030  RH  017%=      5-min Rain = 0
KBO1 191943Z 20021KT 24/M03 A2987 RMK A01 T02361030  RH  017%=      5-min Rain = 0
KBO1 191944Z 22022KT 24/M03 A2986 RMK A01 T02361029  RH  017%=      5-min Rain = 0
KBO1 191945Z 22021G26KT 24/M03 A2987 RMK A01 T02371027  RH  017%=      5-min Rain = 0
KBO1 191946Z 22023KT 24/M03 A2987 RMK A01 T02391026  RH  017%=      5-min Rain = 0
KBO1 191947Z 22022KT 24/M03 A2986 RMK A01 T02391031  RH  016%=      5-min Rain = 0
KBO1 191948Z 22020KT 24/M03 A2986 RMK A01 T02381030  RH  017%=      5-min Rain = 0
KBO1 191949Z 22022KT 24/M03 A2986 RMK A01 T02371030  RH  017%=      5-min Rain = 0
KBO1 191950Z 22020KT 24/M03 A2987 RMK A01 T02371030  RH  017%=      5-min Rain = 0
KBO1 191951Z 23020KT 24/M03 A2986 RMK A01 T02361029  RH  017%=      5-min Rain = 0
KBO1 191952Z 23022KT 24/M03 A2986 RMK A01 T02361029  RH  017%=      5-min Rain = 0
KBO1 191953Z 23023KT 24/M03 A2986 RMK A01 T02371030  RH  017%=      5-min Rain = 0
KBO1 191954Z 22023KT 24/M03 A2986 RMK A01 T02361030  RH  017%=      5-min Rain = 0
KBO1 191955Z 22021KT 24/M03 A2986 RMK A01 T02361030  RH  017%=      5-min Rain = 0
KBO1 191956Z 23018KT 24/M03 A2986 RMK A01 T02371028  RH  017%=      5-min Rain = 0
KBO1 191957Z 22018KT 24/M03 A2986 RMK A01 T02381031  RH  017%=      5-min Rain = 0
KBO1 191958Z 22023KT 24/M03 A2986 RMK A01 T02371028  RH  017%=      5-min Rain = 0
KBO1 191959Z 21021G26KT 24/M03 A2986 RMK A01 T02381028  RH  017%=      5-min Rain = 0
KBO1 192000Z 21020KT 24/M03 A2986 RMK A01 T02381029  RH  017%=      5-min Rain = 0
KBO1 192001Z 22019KT 24/M03 A2986 RMK A01 T02381028  RH  017%=      5-min Rain = 0
KBO1 192002Z 22016KT 24/M03 A2986 RMK A01 T02371027  RH  017%=      5-min Rain = 0
KBO1 192003Z 23019KT 24/M03 A2986 RMK A01 T02401027  RH  017%=      5-min Rain = 0
KBO1 192004Z 23018KT 24/M03 A2986 RMK A01 T02391030  RH  016%=      5-min Rain = 0
KBO1 192005Z 22018KT 24/M03 A2986 RMK A01 T02371029  RH  017%=      5-min Rain = 0
KBO1 192006Z 22022G27KT 24/M03 A2985 RMK A01 T02381028  RH  017%=      5-min Rain = 0
KBO1 192007Z 22023G28KT 24/M03 A2985 RMK A01 T02381030  RH  017%=      5-min Rain = 0
KBO1 192008Z 22017KT 24/M03 A2986 RMK A01 T02381029  RH  017%=      5-min Rain = 0
KBO1 192009Z 22018KT 24/M03 A2986 RMK A01 T02381027  RH  017%=      5-min Rain = 0
KBO1 192010Z 22016KT 24/M03 A2986 RMK A01 T02391025  RH  017%=      5-min Rain = 0
KBO1 192011Z 22018KT 24/M02 A2986 RMK A01 T02421024  RH  017%=      5-min Rain = 0
KBO1 192012Z 22019KT 24/M03 A2985 RMK A01 T02401025  RH  017%=      5-min Rain = 0
KBO1 192013Z 21019KT 24/M03 A2985 RMK A01 T02401027  RH  017%=      5-min Rain = 0
KBO1 192014Z 21019G24KT 24/M03 A2985 RMK A01 T02401028  RH  017%=      5-min Rain = 0
KBO1 192015Z 22022KT 24/M03 A2985 RMK A01 T02391028  RH  017%=      5-min Rain = 0
KBO1 192016Z 23019KT 24/M03 A2985 RMK A01 T02381031  RH  017%=      5-min Rain = 0
KBO1 192017Z 24020KT 24/M03 A2985 RMK A01 T02381031  RH  016%=      5-min Rain = 0
KBO1 192018Z 23019KT 24/M03 A2985 RMK A01 T02381032  RH  016%=      5-min Rain = 0
KBO1 192019Z 23021G27KT 24/M03 A2985 RMK A01 T02391032  RH  016%=      5-min Rain = 0
KBO1 192020Z 22019KT 24/M03 A2985 RMK A01 T02391034  RH  016%=      5-min Rain = 0
KBO1 192021Z 22018KT 24/M03 A2985 RMK A01 T02371034  RH  016%=      5-min Rain = 0
KBO1 192022Z 22018KT 24/M03 A2985 RMK A01 T02361032  RH  017%=      5-min Rain = 0
KBO1 192023Z 22018G24KT 24/M03 A2985 RMK A01 T02361031  RH  017%=      5-min Rain = 0
KBO1 192024Z 22023KT 24/M03 A2985 RMK A01 T02371031  RH  017%=      5-min Rain = 0
KBO1 192025Z 22021KT 24/M03 A2985 RMK A01 T02371033  RH  016%=      5-min Rain = 0
KBO1 192026Z 21022KT 24/M03 A2985 RMK A01 T02361033  RH  017%=      5-min Rain = 0
KBO1 192027Z 22021KT 24/M03 A2985 RMK A01 T02361033  RH  016%=      5-min Rain = 0
KBO1 192028Z 22017KT 24/M03 A2985 RMK A01 T02361033  RH  017%=      5-min Rain = 0
KBO1 192029Z 22017KT 24/M03 A2985 RMK A01 T02371031  RH  017%=      5-min Rain = 0
KBO1 192030Z 22017KT 24/M03 A2985 RMK A01 T02371032  RH  017%=      5-min Rain = 0
KBO1 192031Z 21017KT 24/M03 A2984 RMK A01 T02371032  RH  016%=      5-min Rain = 0
KBO1 192032Z 21016G21KT 24/M03 A2984 RMK A01 T02361033  RH  016%=      5-min Rain = 0
KBO1 192033Z 23019G24KT 24/M04 A2984 RMK A01 T02371035  RH  016%=      5-min Rain = 0
KBO1 192034Z 23020KT 24/M03 A2984 RMK A01 T02371034  RH  016%=      5-min Rain = 0
KBO1 192035Z 22019KT 24/M04 A2984 RMK A01 T02361035  RH  016%=      5-min Rain = 0
KBO1 192036Z 21019KT 24/M03 A2984 RMK A01 T02351034  RH  016%=      5-min Rain = 0
KBO1 192037Z 21019KT 24/M04 A2984 RMK A01 T02351035  RH  016%=      5-min Rain = 0
KBO1 192038Z 22020KT 24/M04 A2984 RMK A01 T02361036  RH  016%=      5-min Rain = 0
KBO1 192039Z 22016KT 24/M04 A2984 RMK A01 T02351035  RH  016%=      5-min Rain = 0
KBO1 192040Z 21021KT 24/M03 A2984 RMK A01 T02361034  RH  016%=      5-min Rain = 0
KBO1 192041Z 21019G24KT 24/M04 A2984 RMK A01 T02361037  RH  016%=      5-min Rain = 0
KBO1 192042Z 22018G25KT 24/M03 A2984 RMK A01 T02371034  RH  016%=      5-min Rain = 0
KBO1 192043Z 23020KT 24/M03 A2984 RMK A01 T02391034  RH  016%=      5-min Rain = 0
KBO1 192044Z 23018KT 24/M04 A2984 RMK A01 T02401035  RH  016%=      5-min Rain = 0
KBO1 192045Z 23021G27KT 24/M04 A2984 RMK A01 T02401036  RH  016%=      5-min Rain = 0
KBO1 192046Z 23019KT 24/M04 A2984 RMK A01 T02391038  RH  016%=      5-min Rain = 0
KBO1 192047Z 23018KT 24/M04 A2984 RMK A01 T02371038  RH  016%=      5-min Rain = 0
KBO1 192048Z 21019KT 24/M04 A2984 RMK A01 T02371036  RH  016%=      5-min Rain = 0
KBO1 192049Z 21018KT 24/M04 A2984 RMK A01 T02381035  RH  016%=      5-min Rain = 0
KBO1 192050Z 22018KT 24/M03 A2984 RMK A01 T02391034  RH  016%=      5-min Rain = 0
KBO1 192051Z 22017KT 24/M03 A2984 RMK A01 T02401033  RH  016%=      5-min Rain = 0
KBO1 192052Z 23020KT 24/M03 A2984 RMK A01 T02411033  RH  016%=      5-min Rain = 0
KBO1 192053Z 23019KT 24/M04 A2984 RMK A01 T02401036  RH  016%=      5-min Rain = 0
KBO1 192054Z 22020KT 24/M03 A2984 RMK A01 T02391034  RH  016%=      5-min Rain = 0
KBO1 192055Z 23021KT 24/M03 A2984 RMK A01 T02391033  RH  016%=      5-min Rain = 0
KBO1 192056Z 22020KT 24/M03 A2984 RMK A01 T02381032  RH  016%=      5-min Rain = 0
KBO1 192057Z 22022KT 24/M03 A2984 RMK A01 T02381031  RH  016%=      5-min Rain = 0
KBO1 192058Z 21020KT 24/M03 A2984 RMK A01 T02391033  RH  016%=      5-min Rain = 0
KBO1 192059Z 21019KT 24/M03 A2984 RMK A01 T02391034  RH  016%=      5-min Rain = 0
KBO1 192100Z 23019KT 24/M03 A2984 RMK A01 T02401034  RH  016%=      5-min Rain = 0
KBO1 192101Z 23019KT 24/M04 A2984 RMK A01 T02391035  RH  016%=      5-min Rain = 0
KBO1 192102Z 23018KT 24/M04 A2984 RMK A01 T02381037  RH  016%=      5-min Rain = 0
KBO1 192103Z 23020KT 24/M04 A2984 RMK A01 T02371037  RH  016%=      5-min Rain = 0
KBO1 192104Z 22016KT 24/M04 A2984 RMK A01 T02351037  RH  016%=      5-min Rain = 0
KBO1 192105Z 22016G21KT 24/M03 A2984 RMK A01 T02351034  RH  016%=      5-min Rain = 0
KBO1 192106Z 22020KT 24/M04 A2984 RMK A01 T02361035  RH  016%=      5-min Rain = 0
KBO1 192107Z 22018KT 24/M04 A2984 RMK A01 T02371035  RH  016%=      5-min Rain = 0
KBO1 192108Z 22020KT 24/M04 A2984 RMK A01 T02361035  RH  016%=      5-min Rain = 0
KBO1 192109Z 21019KT 24/M04 A2984 RMK A01 T02351037  RH  016%=      5-min Rain = 0
KBO1 192110Z 21020KT 23/M04 A2983 RMK A01 T02341037  RH  016%=      5-min Rain = 0
KBO1 192111Z 21022KT 23/M04 A2984 RMK A01 T02341037  RH  016%=      5-min Rain = 0
KBO1 192112Z 21018KT 23/M04 A2983 RMK A01 T02331037  RH  016%=      5-min Rain = 0
KBO1 192113Z 22018KT 23/M04 A2983 RMK A01 T02331035  RH  016%=      5-min Rain = 0
KBO1 192114Z 21016KT 23/M04 A2984 RMK A01 T02331035  RH  016%=      5-min Rain = 0
KBO1 192115Z 22020KT 23/M03 A2984 RMK A01 T02341034  RH  017%=      5-min Rain = 0
KBO1 192116Z 22021KT 24/M04 A2983 RMK A01 T02351036  RH  016%=      5-min Rain = 0
KBO1 192117Z 22019KT 23/M04 A2983 RMK A01 T02331038  RH  016%=      5-min Rain = 0
KBO1 192118Z 21017G22KT 23/M04 A2983 RMK A01 T02321036  RH  016%=      5-min Rain = 0
KBO1 192119Z 21020KT 23/M04 A2983 RMK A01 T02321038  RH  016%=      5-min Rain = 0
KBO1 192120Z 21018KT 23/M04 A2983 RMK A01 T02321036  RH  016%=      5-min Rain = 0
KBO1 192121Z 21018KT 23/M04 A2983 RMK A01 T02341036  RH  016%=      5-min Rain = 0
KBO1 192122Z 21018KT 24/M04 A2983 RMK A01 T02351036  RH  016%=      5-min Rain = 0
KBO1 192123Z 21020KT 24/M04 A2983 RMK A01 T02351036  RH  016%=      5-min Rain = 0
KBO1 192124Z 22017KT 24/M04 A2983 RMK A01 T02361035  RH  016%=      5-min Rain = 0
KBO1 192125Z 21016KT 24/M03 A2983 RMK A01 T02361033  RH  016%=      5-min Rain = 0
KBO1 192126Z 21016KT 24/M03 A2983 RMK A01 T02361033  RH  016%=      5-min Rain = 0
KBO1 192127Z 21018G23KT 24/M03 A2983 RMK A01 T02361034  RH  016%=      5-min Rain = 0
KBO1 192128Z 20018KT 24/M04 A2983 RMK A01 T02351035  RH  016%=      5-min Rain = 0
KBO1 192129Z 20017KT 23/M03 A2983 RMK A01 T02341034  RH  017%=      5-min Rain = 0
KBO1 192130Z 20019KT 23/M03 A2983 RMK A01 T02341034  RH  016%=      5-min Rain = 0
KBO1 192131Z 22017KT 24/M03 A2983 RMK A01 T02351034  RH  016%=      5-min Rain = 0
KBO1 192132Z 22017G22KT 24/M03 A2983 RMK A01 T02361033  RH  016%=      5-min Rain = 0
KBO1 192133Z 22019KT 24/M03 A2983 RMK A01 T02361034  RH  016%=      5-min Rain = 0
KBO1 192134Z 21017KT 24/M03 A2983 RMK A01 T02351033  RH  016%=      5-min Rain = 0
KBO1 192135Z 20019KT 24/M03 A2983 RMK A01 T02351033  RH  017%=      5-min Rain = 0
KBO1 192136Z 20016KT 24/M03 A2983 RMK A01 T02351034  RH  016%=      5-min Rain = 0
KBO1 192137Z 21019KT 24/M03 A2983 RMK A01 T02361034  RH  016%=      5-min Rain = 0
KBO1 192138Z 21018KT 24/M04 A2983 RMK A01 T02351035  RH  016%=      5-min Rain = 0
KBO1 192139Z 21015G20KT 24/M03 A2983 RMK A01 T02361031  RH  017%=      5-min Rain = 0
KBO1 192140Z 22019KT 24/M03 A2983 RMK A01 T02371033  RH  016%=      5-min Rain = 0
KBO1 192141Z 22017KT 24/M04 A2983 RMK A01 T02361035  RH  016%=      5-min Rain = 0
KBO1 192142Z 21016KT 24/M03 A2983 RMK A01 T02351033  RH  017%=      5-min Rain = 0
KBO1 192143Z 22018KT 24/M03 A2983 RMK A01 T02351032  RH  017%=      5-min Rain = 0
KBO1 192144Z 21016KT 24/M03 A2983 RMK A01 T02361033  RH  017%=      5-min Rain = 0
KBO1 192145Z 21016KT 24/M03 A2983 RMK A01 T02361034  RH  016%=      5-min Rain = 0
KBO1 192146Z 20015KT 24/M03 A2983 RMK A01 T02361033  RH  016%=      5-min Rain = 0
KBO1 192147Z 21016KT 24/M03 A2983 RMK A01 T02371032  RH  017%=      5-min Rain = 0
KBO1 192148Z 22014KT 24/M03 A2983 RMK A01 T02371033  RH  016%=      5-min Rain = 0
KBO1 192149Z 20019KT 24/M03 A2983 RMK A01 T02361032  RH  017%=      5-min Rain = 0
KBO1 192150Z 21017KT 24/M04 A2983 RMK A01 T02361036  RH  016%=      5-min Rain = 0
KBO1 192151Z 22014KT 24/M03 A2983 RMK A01 T02361031  RH  017%=      5-min Rain = 0
KBO1 192152Z 22017KT 24/M03 A2983 RMK A01 T02361030  RH  017%=      5-min Rain = 0
KBO1 192153Z 21016KT 24/M03 A2983 RMK A01 T02361034  RH  016%=      5-min Rain = 0
KBO1 192154Z 21019KT 24/M03 A2983 RMK A01 T02361034  RH  016%=      5-min Rain = 0
KBO1 192155Z 21020KT 24/M04 A2983 RMK A01 T02351035  RH  016%=      5-min Rain = 0
KBO1 192156Z 21018KT 23/M04 A2983 RMK A01 T02341036  RH  016%=      5-min Rain = 0
KBO1 192157Z 21018KT 23/M04 A2983 RMK A01 T02331035  RH  017%=      5-min Rain = 0
KBO1 192158Z 20020KT 23/M03 A2983 RMK A01 T02331034  RH  017%=      5-min Rain = 0
KBO1 192159Z 21019KT 23/M04 A2983 RMK A01 T02331035  RH  017%=      5-min Rain = 0
KBO1 192200Z 22020KT 23/M03 A2983 RMK A01 T02331034  RH  017%=      5-min Rain = 0
KBO1 192201Z 21017KT 23/M03 A2983 RMK A01 T02331033  RH  017%=      5-min Rain = 0
KBO1 192202Z 21018KT 23/M03 A2983 RMK A01 T02331034  RH  017%=      5-min Rain = 0
KBO1 192203Z 21018KT 23/M03 A2982 RMK A01 T02331034  RH  017%=      5-min Rain = 0
KBO1 192204Z 20017KT 23/M03 A2982 RMK A01 T02331033  RH  017%=      5-min Rain = 0
KBO1 192205Z 21018KT 23/M03 A2982 RMK A01 T02331033  RH  017%=      5-min Rain = 0
KBO1 192206Z 21017KT 23/M04 A2982 RMK A01 T02331035  RH  017%=      5-min Rain = 0
KBO1 192207Z 22018KT 23/M03 A2982 RMK A01 T02331032  RH  017%=      5-min Rain = 0
KBO1 192208Z 22016KT 23/M03 A2982 RMK A01 T02321032  RH  017%=      5-min Rain = 0
KBO1 192209Z 22018KT 23/M03 A2982 RMK A01 T02331032  RH  017%=      5-min Rain = 0
KBO1 192210Z 21019KT 23/M03 A2982 RMK A01 T02331032  RH  017%=      5-min Rain = 0
KBO1 192211Z 21018KT 23/M03 A2982 RMK A01 T02331033  RH  017%=      5-min Rain = 0
KBO1 192212Z 21019KT 23/M03 A2982 RMK A01 T02321034  RH  017%=      5-min Rain = 0
KBO1 192213Z 21016KT 23/M03 A2982 RMK A01 T02311033  RH  017%=      5-min Rain = 0
KBO1 192214Z 21018G23KT 23/M03 A2982 RMK A01 T02311032  RH  017%=      5-min Rain = 0
KBO1 192215Z 20017KT 23/M03 A2982 RMK A01 T02301033  RH  017%=      5-min Rain = 0
KBO1 192216Z 21017KT 23/M03 A2982 RMK A01 T02301033  RH  017%=      5-min Rain = 0
KBO1 192217Z 21016KT 23/M03 A2982 RMK A01 T02301033  RH  017%=      5-min Rain = 0
KBO1 192218Z 21017KT 23/M03 A2982 RMK A01 T02291032  RH  017%=      5-min Rain = 0
KBO1 192219Z 22019KT 23/M03 A2982 RMK A01 T02291033  RH  017%=      5-min Rain = 0
KBO1 192220Z 22018KT 23/M03 A2982 RMK A01 T02281034  RH  017%=      5-min Rain = 0
KBO1 192221Z 21019KT 23/M03 A2982 RMK A01 T02281034  RH  017%=      5-min Rain = 0
KBO1 192222Z 21017KT 23/M04 A2982 RMK A01 T02281035  RH  017%=      5-min Rain = 0
KBO1 192223Z 21019KT 23/M04 A2982 RMK A01 T02271035  RH  017%=      5-min Rain = 0
KBO1 192224Z 21016KT 23/M04 A2982 RMK A01 T02261035  RH  017%=      5-min Rain = 0
KBO1 192225Z 22016G21KT 22/M03 A2982 RMK A01 T02241034  RH  018%=      5-min Rain = 0
KBO1 192226Z 21018KT 22/M03 A2982 RMK A01 T02231034  RH  018%=      5-min Rain = 0
KBO1 192227Z 22016KT 22/M03 A2982 RMK A01 T02221034  RH  018%=      5-min Rain = 0
KBO1 192228Z 21015KT 22/M03 A2982 RMK A01 T02211033  RH  018%=      5-min Rain = 0
KBO1 192229Z 21018KT 22/M03 A2982 RMK A01 T02201034  RH  018%=      5-min Rain = 0
KBO1 192230Z 21016KT 22/M04 A2982 RMK A01 T02201035  RH  018%=      5-min Rain = 0
KBO1 192231Z 21017KT 22/M04 A2982 RMK A01 T02201035  RH  018%=      5-min Rain = 0
KBO1 192232Z 21015KT 22/M04 A2982 RMK A01 T02201035  RH  018%=      5-min Rain = 0
KBO1 192233Z 21013KT 22/M03 A2982 RMK A01 T02201033  RH  018%=      5-min Rain = 0
KBO1 192234Z 21013KT 22/M03 A2982 RMK A01 T02201032  RH  018%=      5-min Rain = 0
KBO1 192235Z 21013KT 22/M03 A2982 RMK A01 T02201032  RH  018%=      5-min Rain = 0
KBO1 192236Z 21012KT 22/M03 A2982 RMK A01 T02201031  RH  018%=      5-min Rain = 0
KBO1 192237Z 21012KT 22/M03 A2982 RMK A01 T02201031  RH  019%=      5-min Rain = 0
KBO1 192238Z 21012KT 22/M03 A2982 RMK A01 T02201031  RH  018%=      5-min Rain = 0
KBO1 192239Z 21013KT 22/M03 A2982 RMK A01 T02201031  RH  018%=      5-min Rain = 0
KBO1 192240Z 21012KT 22/M03 A2982 RMK A01 T02201031  RH  018%=      5-min Rain = 0
KBO1 192241Z 21013KT 22/M03 A2982 RMK A01 T02201031  RH  018%=      5-min Rain = 0
KBO1 192242Z 21011KT 22/M03 A2982 RMK A01 T02191031  RH  018%=      5-min Rain = 0
KBO1 192243Z 21011KT 22/M03 A2982 RMK A01 T02181029  RH  019%=      5-min Rain = 0
KBO1 192244Z 21012KT 22/M03 A2982 RMK A01 T02171031  RH  019%=      5-min Rain = 0
KBO1 192245Z 21013KT 22/M03 A2982 RMK A01 T02161031  RH  019%=      5-min Rain = 0
KBO1 192246Z 21013KT 22/M03 A2982 RMK A01 T02161032  RH  019%=      5-min Rain = 0
KBO1 192247Z 21012KT 22/M03 A2982 RMK A01 T02151031  RH  019%=      5-min Rain = 0
KBO1 192248Z 21013KT 22/M03 A2982 RMK A01 T02151031  RH  019%=      5-min Rain = 0
KBO1 192249Z 21012KT 21/M03 A2982 RMK A01 T02141030  RH  019%=      5-min Rain = 0
KBO1 192250Z 21012KT 21/M03 A2982 RMK A01 T02131030  RH  019%=      5-min Rain = 0
KBO1 192251Z 21012KT 21/M03 A2982 RMK A01 T02121030  RH  020%=      5-min Rain = 0
KBO1 192252Z 20012KT 21/M03 A2982 RMK A01 T02121030  RH  020%=      5-min Rain = 0
KBO1 192253Z 20011KT 21/M03 A2982 RMK A01 T02111029  RH  020%=      5-min Rain = 0
KBO1 192254Z 20013KT 21/M03 A2982 RMK A01 T02121029  RH  020%=      5-min Rain = 0
KBO1 192255Z 20012KT 21/M03 A2982 RMK A01 T02111030  RH  020%=      5-min Rain = 0
KBO1 192256Z 20012KT 21/M03 A2982 RMK A01 T02121029  RH  020%=      5-min Rain = 0
KBO1 192257Z 20011KT 21/M03 A2982 RMK A01 T02131028  RH  020%=      5-min Rain = 0
KBO1 192258Z 21011KT 21/M03 A2982 RMK A01 T02111028  RH  020%=      5-min Rain = 0
KBO1 192259Z 20010KT 21/M03 A2982 RMK A01 T02111027  RH  020%=      5-min Rain = 0
KBO1 192300Z 20012KT 21/M03 A2982 RMK A01 T02101027  RH  020%=      5-min Rain = 0
KBO1 192301Z 20012KT 21/M03 A2982 RMK A01 T02091029  RH  020%=      5-min Rain = 0
KBO1 192302Z 20012KT 21/M03 A2982 RMK A01 T02091030  RH  020%=      5-min Rain = 0
KBO1 192303Z 20012KT 21/M03 A2982 RMK A01 T02091029  RH  020%=      5-min Rain = 0
KBO1 192304Z 20011KT 21/M03 A2982 RMK A01 T02091029  RH  020%=      5-min Rain = 0
KBO1 192305Z 20012KT 21/M03 A2982 RMK A01 T02091029  RH  020%=      5-min Rain = 0
KBO1 192306Z 19011KT 21/M03 A2982 RMK A01 T02081029  RH  020%=      5-min Rain = 0
KBO1 192307Z 19011KT 21/M03 A2982 RMK A01 T02071029  RH  020%=      5-min Rain = 0
KBO1 192308Z 19012KT 21/M03 A2983 RMK A01 T02051029  RH  020%=      5-min Rain = 0
KBO1 192309Z 19012KT 20/M03 A2983 RMK A01 T02041030  RH  021%=      5-min Rain = 0
KBO1 192310Z 19011KT 20/M03 A2983 RMK A01 T02021030  RH  021%=      5-min Rain = 0
KBO1 192311Z 19011KT 20/M03 A2982 RMK A01 T02001030  RH  021%=      5-min Rain = 0
KBO1 192312Z 19011KT 20/M03 A2982 RMK A01 T01981030  RH  021%=      5-min Rain = 0
KBO1 192313Z 19010KT 20/M03 A2982 RMK A01 T01971030  RH  021%=      5-min Rain = 0
KBO1 192314Z 19010KT 20/M03 A2982 RMK A01 T01951030  RH  022%=      5-min Rain = 0
KBO1 192315Z 19010KT 19/M03 A2982 RMK A01 T01941030  RH  022%=      5-min Rain = 0
KBO1 192316Z 19009KT 19/M03 A2982 RMK A01 T01921030  RH  022%=      5-min Rain = 0
KBO1 192317Z 19010KT 19/M03 A2982 RMK A01 T01901030  RH  022%=      5-min Rain = 0
KBO1 192318Z 19010KT 19/M03 A2982 RMK A01 T01871030  RH  023%=      5-min Rain = 0
KBO1 192319Z 19010KT 19/M03 A2982 RMK A01 T01851031  RH  023%=      5-min Rain = 0
KBO1 192320Z 19009KT 18/M03 A2982 RMK A01 T01831031  RH  023%=      5-min Rain = 0
KBO1 192321Z 19009KT 18/M03 A2982 RMK A01 T01801031  RH  024%=      5-min Rain = 0
KBO1 192322Z 19009KT 18/M03 A2982 RMK A01 T01781031  RH  024%=      5-min Rain = 0
KBO1 192323Z 19009KT 18/M03 A2982 RMK A01 T01751032  RH  024%=      5-min Rain = 0
KBO1 192324Z 19009KT 17/M03 A2982 RMK A01 T01731032  RH  025%=      5-min Rain = 0
KBO1 192325Z 19009KT 17/M03 A2982 RMK A01 T01711032  RH  025%=      5-min Rain = 0
KBO1 192326Z 20010KT 17/M03 A2982 RMK A01 T01681032  RH  025%=      5-min Rain = 0
KBO1 192327Z 20010KT 17/M03 A2983 RMK A01 T01671031  RH  026%=      5-min Rain = 0
KBO1 192328Z 20010KT 17/M03 A2983 RMK A01 T01651031  RH  026%=      5-min Rain = 0
KBO1 192329Z 20010KT 16/M03 A2983 RMK A01 T01621031  RH  026%=      5-min Rain = 0
KBO1 192330Z 20011KT 16/M03 A2983 RMK A01 T01611031  RH  027%=      5-min Rain = 0
KBO1 192331Z 20011KT 16/M03 A2983 RMK A01 T01601030  RH  027%=      5-min Rain = 0
KBO1 192332Z 20011KT 16/M03 A2983 RMK A01 T01591031  RH  027%=      5-min Rain = 0
KBO1 192333Z 20011KT 16/M03 A2983 RMK A01 T01581031  RH  027%=      5-min Rain = 0
KBO1 192334Z 20011KT 16/M03 A2982 RMK A01 T01581031  RH  027%=      5-min Rain = 0
KBO1 192335Z 20011KT 16/M03 A2982 RMK A01 T01581031  RH  027%=      5-min Rain = 0
KBO1 192336Z 20011KT 16/M03 A2982 RMK A01 T01591031  RH  027%=      5-min Rain = 0
KBO1 192337Z 20011KT 16/M03 A2982 RMK A01 T01591031  RH  027%=      5-min Rain = 0
KBO1 192338Z 20011KT 16/M03 A2982 RMK A01 T01581031  RH  027%=      5-min Rain = 0
KBO1 192339Z 20012KT 16/M03 A2982 RMK A01 T01571032  RH  027%=      5-min Rain = 0
KBO1 192340Z 19012KT 16/M03 A2982 RMK A01 T01571032  RH  027%=      5-min Rain = 0
KBO1 192341Z 19012KT 16/M03 A2982 RMK A01 T01571032  RH  027%=      5-min Rain = 0
KBO1 192342Z 19012KT 16/M03 A2982 RMK A01 T01571032  RH  027%=      5-min Rain = 0
KBO1 192343Z 20012KT 16/M03 A2982 RMK A01 T01571032  RH  027%=      5-min Rain = 0
KBO1 192344Z 20012KT 16/M03 A2982 RMK A01 T01571031  RH  027%=      5-min Rain = 0
KBO1 192345Z 20012KT 16/M03 A2982 RMK A01 T01571031  RH  027%=      5-min Rain = 0
KBO1 192346Z 20012KT 16/M03 A2982 RMK A01 T01581031  RH  027%=      5-min Rain = 0
KBO1 192347Z 20012KT 16/M03 A2983 RMK A01 T01591031  RH  027%=      5-min Rain = 0
KBO1 192348Z 20012KT 16/M03 A2983 RMK A01 T01591031  RH  027%=      5-min Rain = 0
KBO1 192349Z 20012KT 16/M03 A2983 RMK A01 T01601031  RH  027%=      5-min Rain = 0
KBO1 192350Z 20012KT 16/M03 A2983 RMK A01 T01591031  RH  027%=      5-min Rain = 0
KBO1 192351Z 20012KT 16/M03 A2983 RMK A01 T01591032  RH  027%=      5-min Rain = 0
KBO1 192352Z 20012KT 16/M03 A2983 RMK A01 T01591032  RH  027%=      5-min Rain = 0
KBO1 192353Z 20012KT 16/M03 A2983 RMK A01 T01601032  RH  027%=      5-min Rain = 0
KBO1 192354Z 20012KT 16/M03 A2983 RMK A01 T01611031  RH  026%=      5-min Rain = 0
KBO1 192355Z 20012KT 16/M03 A2983 RMK A01 T01621032  RH  026%=      5-min Rain = 0
KBO1 192356Z 20012KT 16/M03 A2983 RMK A01 T01631032  RH  026%=      5-min Rain = 0
KBO1 192357Z 20012KT 16/M03 A2983 RMK A01 T01631032  RH  026%=      5-min Rain = 0
KBO1 192358Z 20012KT 16/M03 A2983 RMK A01 T01641031  RH  026%=      5-min Rain = 0
KBO1 192359Z 20012KT 16/M03 A2983 RMK A01 T01641031  RH  026%=      5-min Rain = 0
KBO1 200000Z 20012KT 16/M03 A2983 RMK A01 T01631031  RH  026%=      5-min Rain = 0
KBO1 200001Z 20011KT 16/M03 A2983 RMK A01 T01631031  RH  026%=      5-min Rain = 0
KBO1 200002Z 20011KT 16/M03 A2983 RMK A01 T01631031  RH  026%=      5-min Rain = 0
KBO1 200003Z 19011KT 16/M03 A2983 RMK A01 T01621031  RH  026%=      5-min Rain = 0
KBO1 200004Z 19011KT 16/M03 A2983 RMK A01 T01611031  RH  027%=      5-min Rain = 0
KBO1 200005Z 19012KT 16/M03 A2983 RMK A01 T01611031  RH  027%=      5-min Rain = 0
KBO1 200006Z 20011KT 16/M03 A2983 RMK A01 T01611031  RH  027%=      5-min Rain = 0
KBO1 200007Z 19012KT 16/M03 A2983 RMK A01 T01611031  RH  027%=      5-min Rain = 0
KBO1 200008Z 19012KT 16/M03 A2983 RMK A01 T01601031  RH  027%=      5-min Rain = 0
KBO1 200009Z 19011KT 16/M03 A2983 RMK A01 T01591031  RH  027%=      5-min Rain = 0
KBO1 200010Z 19011KT 16/M03 A2983 RMK A01 T01571031  RH  027%=      5-min Rain = 0
KBO1 200011Z 19011KT 16/M03 A2983 RMK A01 T01561031  RH  027%=      5-min Rain = 0
KBO1 200012Z 19011KT 16/M03 A2983 RMK A01 T01551031  RH  028%=      5-min Rain = 0
KBO1 200013Z 19011KT 16/M03 A2983 RMK A01 T01551031  RH  028%=      5-min Rain = 0
KBO1 200014Z 19010KT 16/M03 A2983 RMK A01 T01551031  RH  028%=      5-min Rain = 0
KBO1 200015Z 19010KT 15/M03 A2983 RMK A01 T01541031  RH  028%=      5-min Rain = 0
KBO1 200016Z 19010KT 15/M03 A2983 RMK A01 T01541031  RH  028%=      5-min Rain = 0
KBO1 200017Z 19010KT 15/M03 A2983 RMK A01 T01531030  RH  028%=      5-min Rain = 0
KBO1 200018Z 19010KT 15/M03 A2983 RMK A01 T01531031  RH  028%=      5-min Rain = 0
KBO1 200019Z 19011KT 15/M03 A2983 RMK A01 T01521031  RH  028%=      5-min Rain = 0
KBO1 200020Z 19010KT 15/M03 A2983 RMK A01 T01521031  RH  028%=      5-min Rain = 0
KBO1 200021Z 19011KT 15/M03 A2983 RMK A01 T01521031  RH  028%=      5-min Rain = 0
KBO1 200022Z 19011KT 15/M03 A2983 RMK A01 T01521031  RH  028%=      5-min Rain = 0
KBO1 200023Z 19011KT 15/M03 A2983 RMK A01 T01521031  RH  028%=      5-min Rain = 0
KBO1 200024Z 19011KT 15/M03 A2983 RMK A01 T01531031  RH  028%=      5-min Rain = 0
KBO1 200025Z 19011KT 16/M03 A2983 RMK A01 T01551031  RH  028%=      5-min Rain = 0
KBO1 200026Z 19011KT 16/M03 A2983 RMK A01 T01551031  RH  028%=      5-min Rain = 0
KBO1 200027Z 19011KT 16/M03 A2983 RMK A01 T01571031  RH  027%=      5-min Rain = 0
KBO1 200028Z 19011KT 16/M03 A2983 RMK A01 T01581031  RH  027%=      5-min Rain = 0
KBO1 200029Z 19011KT 16/M03 A2983 RMK A01 T01581031  RH  027%=      5-min Rain = 0
KBO1 200030Z 19011KT 16/M03 A2983 RMK A01 T01581031  RH  027%=      5-min Rain = 0
KBO1 200031Z 19011KT 16/M03 A2983 RMK A01 T01581031  RH  027%=      5-min Rain = 0
KBO1 200032Z 19012KT 16/M03 A2983 RMK A01 T01571031  RH  027%=      5-min Rain = 0
KBO1 200033Z 19012KT 16/M03 A2983 RMK A01 T01561031  RH  027%=      5-min Rain = 0
KBO1 200034Z 19013KT 16/M03 A2983 RMK A01 T01571031  RH  027%=      5-min Rain = 0
KBO1 200035Z 19013KT 16/M03 A2983 RMK A01 T01581030  RH  027%=      5-min Rain = 0
KBO1 200036Z 19013KT 16/M03 A2983 RMK A01 T01581030  RH  027%=      5-min Rain = 0
KBO1 200037Z 19013KT 16/M03 A2983 RMK A01 T01581030  RH  027%=      5-min Rain = 0
KBO1 200038Z 20013KT 16/M03 A2983 RMK A01 T01581030  RH  027%=      5-min Rain = 0
KBO1 200039Z 20013KT 16/M03 A2983 RMK A01 T01581030  RH  027%=      5-min Rain = 0
KBO1 200040Z 20013KT 16/M03 A2983 RMK A01 T01571030  RH  027%=      5-min Rain = 0
KBO1 200041Z 20014KT 16/M03 A2983 RMK A01 T01571030  RH  027%=      5-min Rain = 0
KBO1 200042Z 20014KT 16/M03 A2983 RMK A01 T01571030  RH  027%=      5-min Rain = 0
KBO1 200043Z 20015KT 16/M03 A2983 RMK A01 T01581030  RH  027%=      5-min Rain = 0
KBO1 200044Z 20014KT 16/M03 A2983 RMK A01 T01581030  RH  027%=      5-min Rain = 0
KBO1 200045Z 20015KT 16/M03 A2983 RMK A01 T01581030  RH  027%=      5-min Rain = 0
KBO1 200046Z 19014KT 16/M03 A2983 RMK A01 T01581030  RH  027%=      5-min Rain = 0
KBO1 200047Z 19014KT 16/M03 A2983 RMK A01 T01581030  RH  027%=      5-min Rain = 0
KBO1 200048Z 20015KT 16/M03 A2983 RMK A01 T01581030  RH  027%=      5-min Rain = 0
KBO1 200049Z 20015KT 16/M03 A2983 RMK A01 T01581030  RH  027%=      5-min Rain = 0
KBO1 200050Z 20014KT 16/M03 A2983 RMK A01 T01581030  RH  027%=      5-min Rain = 0
KBO1 200051Z 20014KT 16/M03 A2983 RMK A01 T01571030  RH  027%=      5-min Rain = 0
KBO1 200052Z 20014KT 16/M03 A2983 RMK A01 T01571030  RH  028%=      5-min Rain = 0
KBO1 200053Z 20013KT 16/M03 A2983 RMK A01 T01561029  RH  028%=      5-min Rain = 0
KBO1 200054Z 20013KT 16/M03 A2983 RMK A01 T01551030  RH  028%=      5-min Rain = 0
KBO1 200055Z 20013KT 16/M03 A2983 RMK A01 T01551030  RH  028%=      5-min Rain = 0
KBO1 200056Z 20012KT 15/M03 A2983 RMK A01 T01541030  RH  028%=      5-min Rain = 0
KBO1 200057Z 20012KT 15/M03 A2983 RMK A01 T01531030  RH  028%=      5-min Rain = 0
KBO1 200058Z 20011KT 15/M03 A2983 RMK A01 T01511030  RH  028%=      5-min Rain = 0
KBO1 200059Z 20011KT 15/M03 A2983 RMK A01 T01491030  RH  029%=      5-min Rain = 0
KBO1 200100Z 20012KT 15/M03 A2983 RMK A01 T01481031  RH  029%=      5-min Rain = 0
KBO1 200101Z 20012KT 15/M03 A2983 RMK A01 T01451031  RH  029%=      5-min Rain = 0
KBO1 200102Z 20012KT 14/M03 A2983 RMK A01 T01441031  RH  030%=      5-min Rain = 0
KBO1 200103Z 20013KT 14/M03 A2982 RMK A01 T01431031  RH  030%=      5-min Rain = 0
KBO1 200104Z 20012KT 14/M03 A2982 RMK A01 T01431030  RH  030%=      5-min Rain = 0
KBO1 200105Z 20013KT 14/M03 A2983 RMK A01 T01421031  RH  030%=      5-min Rain = 0
KBO1 200106Z 20013KT 14/M03 A2983 RMK A01 T01411030  RH  030%=      5-min Rain = 0
KBO1 200107Z 20014KT 14/M03 A2983 RMK A01 T01411030  RH  030%=      5-min Rain = 0
KBO1 200108Z 20014KT 14/M03 A2983 RMK A01 T01411030  RH  030%=      5-min Rain = 0
KBO1 200109Z 20015KT 14/M03 A2983 RMK A01 T01411030  RH  030%=      5-min Rain = 0
KBO1 200110Z 20015KT 14/M03 A2983 RMK A01 T01411031  RH  030%=      5-min Rain = 0
KBO1 200111Z 20015KT 14/M03 A2983 RMK A01 T01411030  RH  030%=      5-min Rain = 0
KBO1 200112Z 20015KT 14/M03 A2983 RMK A01 T01421030  RH  030%=      5-min Rain = 0
KBO1 200113Z 20015KT 14/M03 A2983 RMK A01 T01431030  RH  030%=      5-min Rain = 0
KBO1 200114Z 20016KT 14/M03 A2983 RMK A01 T01441030  RH  030%=      5-min Rain = 0
KBO1 200115Z 20015KT 15/M03 A2983 RMK A01 T01451030  RH  030%=      5-min Rain = 0
KBO1 200116Z 20015KT 15/M03 A2983 RMK A01 T01461030  RH  030%=      5-min Rain = 0
KBO1 200117Z 20015KT 15/M03 A2983 RMK A01 T01461030  RH  030%=      5-min Rain = 0
KBO1 200118Z 20014KT 15/M03 A2983 RMK A01 T01451030  RH  030%=      5-min Rain = 0
KBO1 200119Z 20014KT 14/M03 A2983 RMK A01 T01441030  RH  030%=      5-min Rain = 0
KBO1 200120Z 19014KT 14/M03 A2983 RMK A01 T01431030  RH  030%=      5-min Rain = 0
KBO1 200121Z 19014KT 14/M03 A2983 RMK A01 T01421030  RH  030%=      5-min Rain = 0
KBO1 200122Z 19013KT 14/M03 A2983 RMK A01 T01421030  RH  030%=      5-min Rain = 0
KBO1 200123Z 19013KT 14/M03 A2983 RMK A01 T01411030  RH  030%=      5-min Rain = 0
KBO1 200124Z 19013KT 14/M03 A2983 RMK A01 T01411031  RH  030%=      5-min Rain = 0
KBO1 200125Z 19012KT 14/M03 A2983 RMK A01 T01401030  RH  031%=      5-min Rain = 0
KBO1 200126Z 19012KT 14/M03 A2983 RMK A01 T01381031  RH  031%=      5-min Rain = 0
KBO1 200127Z 19012KT 14/M03 A2983 RMK A01 T01371030  RH  031%=      5-min Rain = 0
KBO1 200128Z 19012KT 14/M03 A2983 RMK A01 T01361030  RH  031%=      5-min Rain = 0
KBO1 200129Z 19012KT 13/M03 A2983 RMK A01 T01341031  RH  032%=      5-min Rain = 0
KBO1 200130Z 19012KT 13/M03 A2983 RMK A01 T01331030  RH  032%=      5-min Rain = 0
KBO1 200131Z 19011KT 13/M03 A2983 RMK A01 T01321030  RH  032%=      5-min Rain = 0
KBO1 200132Z 19011KT 13/M03 A2983 RMK A01 T01321030  RH  032%=      5-min Rain = 0
KBO1 200133Z 19012KT 13/M03 A2983 RMK A01 T01311030  RH  033%=      5-min Rain = 0
KBO1 200134Z 19012KT 13/M03 A2983 RMK A01 T01311030  RH  033%=      5-min Rain = 0
KBO1 200135Z 19012KT 13/M03 A2983 RMK A01 T01301029  RH  033%=      5-min Rain = 0
KBO1 200136Z 20012KT 13/M03 A2983 RMK A01 T01291029  RH  033%=      5-min Rain = 0
KBO1 200137Z 20012KT 13/M03 A2983 RMK A01 T01281029  RH  033%=      5-min Rain = 0
KBO1 200138Z 20013KT 13/M03 A2983 RMK A01 T01301028  RH  033%=      5-min Rain = 0
KBO1 200139Z 20012KT 13/M03 A2983 RMK A01 T01311028  RH  033%=      5-min Rain = 0
KBO1 200140Z 20013KT 13/M03 A2983 RMK A01 T01321028  RH  033%=      5-min Rain = 0
KBO1 200141Z 20013KT 13/M03 A2983 RMK A01 T01331028  RH  033%=      5-min Rain = 0
KBO1 200142Z 20013KT 13/M03 A2983 RMK A01 T01331028  RH  033%=      5-min Rain = 0
KBO1 200143Z 20013KT 13/M03 A2983 RMK A01 T01341027  RH  033%=      5-min Rain = 0
KBO1 200144Z 20013KT 13/M03 A2983 RMK A01 T01341028  RH  032%=      5-min Rain = 0
KBO1 200145Z 20013KT 14/M03 A2983 RMK A01 T01351027  RH  032%=      5-min Rain = 0
KBO1 200146Z 20013KT 14/M03 A2983 RMK A01 T01351028  RH  032%=      5-min Rain = 0
KBO1 200147Z 20013KT 14/M03 A2983 RMK A01 T01361028  RH  032%=      5-min Rain = 0
KBO1 200148Z 20013KT 14/M03 A2983 RMK A01 T01361028  RH  032%=      5-min Rain = 0
KBO1 200149Z 20013KT 14/M03 A2983 RMK A01 T01361028  RH  032%=      5-min Rain = 0
KBO1 200150Z 20013KT 14/M03 A2983 RMK A01 T01361028  RH  032%=      5-min Rain = 0
KBO1 200151Z 20013KT 14/M03 A2983 RMK A01 T01371028  RH  032%=      5-min Rain = 0
KBO1 200152Z 20013KT 14/M03 A2983 RMK A01 T01381028  RH  032%=      5-min Rain = 0
KBO1 200153Z 20013KT 14/M03 A2983 RMK A01 T01381028  RH  032%=      5-min Rain = 0
KBO1 200154Z 20014KT 14/M03 A2983 RMK A01 T01391028  RH  032%=      5-min Rain = 0
KBO1 200155Z 20014KT 14/M03 A2983 RMK A01 T01381028  RH  032%=      5-min Rain = 0
KBO1 200156Z 20014KT 14/M03 A2983 RMK A01 T01391028  RH  031%=      5-min Rain = 0
KBO1 200157Z 20014KT 14/M03 A2983 RMK A01 T01411027  RH  031%=      5-min Rain = 0
KBO1 200158Z 20014KT 14/M03 A2983 RMK A01 T01421027  RH  031%=      5-min Rain = 0
KBO1 200159Z 20015KT 14/M03 A2983 RMK A01 T01421027  RH  031%=      5-min Rain = 0
KBO1 200200Z 20015KT 14/M03 A2983 RMK A01 T01421027  RH  031%=      5-min Rain = 0
KBO1 200201Z 20014KT 14/M03 A2983 RMK A01 T01431027  RH  031%=      5-min Rain = 0
KBO1 200202Z 20015KT 14/M03 A2983 RMK A01 T01431027  RH  031%=      5-min Rain = 0
KBO1 200203Z 20014KT 14/M03 A2983 RMK A01 T01441027  RH  031%=      5-min Rain = 0
KBO1 200204Z 20014KT 15/M03 A2983 RMK A01 T01451026  RH  031%=      5-min Rain = 0
KBO1 200205Z 20014KT 15/M03 A2983 RMK A01 T01461027  RH  030%=      5-min Rain = 0
KBO1 200206Z 20013KT 15/M03 A2983 RMK A01 T01451026  RH  030%=      5-min Rain = 0
KBO1 200207Z 20014KT 15/M03 A2983 RMK A01 T01451026  RH  031%=      5-min Rain = 0
KBO1 200208Z 20014KT 14/M03 A2983 RMK A01 T01441027  RH  031%=      5-min Rain = 0
KBO1 200209Z 19014KT 14/M03 A2983 RMK A01 T01441027  RH  031%=      5-min Rain = 0
KBO1 200210Z 19013KT 14/M03 A2983 RMK A01 T01441027  RH  031%=      5-min Rain = 0
KBO1 200211Z 19013KT 14/M03 A2983 RMK A01 T01421027  RH  031%=      5-min Rain = 0
KBO1 200212Z 20012KT 14/M03 A2983 RMK A01 T01401027  RH  031%=      5-min Rain = 0
KBO1 200213Z 19013KT 14/M03 A2983 RMK A01 T01381028  RH  032%=      5-min Rain = 0
KBO1 200214Z 19012KT 14/M03 A2984 RMK A01 T01371027  RH  032%=      5-min Rain = 0
KBO1 200215Z 19012KT 14/M03 A2984 RMK A01 T01361027  RH  032%=      5-min Rain = 0
KBO1 200216Z 19012KT 14/M03 A2984 RMK A01 T01351027  RH  032%=      5-min Rain = 0
KBO1 200217Z 19012KT 13/M03 A2984 RMK A01 T01341027  RH  033%=      5-min Rain = 0
KBO1 200218Z 19012KT 13/M03 A2984 RMK A01 T01331027  RH  033%=      5-min Rain = 0
KBO1 200219Z 19011KT 13/M03 A2984 RMK A01 T01311027  RH  033%=      5-min Rain = 0
KBO1 200220Z 19012KT 13/M03 A2984 RMK A01 T01301027  RH  034%=      5-min Rain = 0
KBO1 200221Z 19012KT 13/M03 A2984 RMK A01 T01291027  RH  034%=      5-min Rain = 0
KBO1 200222Z 19011KT 13/M03 A2984 RMK A01 T01281027  RH  034%=      5-min Rain = 0
KBO1 200223Z 19011KT 13/M03 A2984 RMK A01 T01271027  RH  034%=      5-min Rain = 0
KBO1 200224Z 19012KT 13/M03 A2984 RMK A01 T01261027  RH  034%=      5-min Rain = 0
KBO1 200225Z 20012KT 13/M03 A2984 RMK A01 T01251027  RH  035%=      5-min Rain = 0
KBO1 200226Z 20012KT 12/M03 A2984 RMK A01 T01241027  RH  035%=      5-min Rain = 0
KBO1 200227Z 20012KT 12/M03 A2984 RMK A01 T01241026  RH  035%=      5-min Rain = 0
KBO1 200228Z 20012KT 12/M03 A2984 RMK A01 T01241026  RH  035%=      5-min Rain = 0
KBO1 200229Z 20012KT 12/M03 A2984 RMK A01 T01241026  RH  035%=      5-min Rain = 0
KBO1 200230Z 20012KT 12/M03 A2984 RMK A01 T01231027  RH  035%=      5-min Rain = 0
KBO1 200231Z 19012KT 12/M03 A2984 RMK A01 T01221027  RH  035%=      5-min Rain = 0
KBO1 200232Z 20012KT 12/M03 A2984 RMK A01 T01221027  RH  035%=      5-min Rain = 0
KBO1 200233Z 20012KT 12/M03 A2984 RMK A01 T01211027  RH  036%=      5-min Rain = 0
KBO1 200234Z 20012KT 12/M03 A2984 RMK A01 T01201027  RH  036%=      5-min Rain = 0
KBO1 200235Z 20011KT 12/M03 A2984 RMK A01 T01191027  RH  036%=      5-min Rain = 0
KBO1 200236Z 20011KT 12/M03 A2984 RMK A01 T01191027  RH  036%=      5-min Rain = 0
KBO1 200237Z 20011KT 12/M03 A2984 RMK A01 T01191027  RH  036%=      5-min Rain = 0
KBO1 200238Z 20011KT 12/M03 A2984 RMK A01 T01191027  RH  036%=      5-min Rain = 0
KBO1 200239Z 20011KT 12/M03 A2984 RMK A01 T01191027  RH  036%=      5-min Rain = 0
KBO1 200240Z 20011KT 12/M03 A2984 RMK A01 T01191026  RH  036%=      5-min Rain = 0
KBO1 200241Z 20011KT 12/M03 A2984 RMK A01 T01181027  RH  036%=      5-min Rain = 0
KBO1 200242Z 20011KT 12/M03 A2984 RMK A01 T01171027  RH  036%=      5-min Rain = 0
KBO1 200243Z 20011KT 12/M03 A2984 RMK A01 T01161027  RH  037%=      5-min Rain = 0
KBO1 200244Z 20012KT 12/M03 A2984 RMK A01 T01151027  RH  037%=      5-min Rain = 0
KBO1 200245Z 20011KT 11/M03 A2984 RMK A01 T01141027  RH  037%=      5-min Rain = 0
KBO1 200246Z 20011KT 11/M03 A2984 RMK A01 T01141026  RH  037%=      5-min Rain = 0
KBO1 200247Z 20011KT 11/M03 A2984 RMK A01 T01141027  RH  037%=      5-min Rain = 0
KBO1 200248Z 20011KT 11/M03 A2984 RMK A01 T01141027  RH  037%=      5-min Rain = 0
KBO1 200249Z 20011KT 11/M03 A2984 RMK A01 T01121027  RH  038%=      5-min Rain = 0
KBO1 200250Z 20011KT 11/M03 A2984 RMK A01 T01121027  RH  038%=      5-min Rain = 0
KBO1 200251Z 20011KT 11/M03 A2984 RMK A01 T01111027  RH  038%=      5-min Rain = 0
KBO1 200252Z 20010KT 11/M03 A2984 RMK A01 T01101027  RH  038%=      5-min Rain = 0
KBO1 200253Z 20010KT 11/M03 A2984 RMK A01 T01101027  RH  038%=      5-min Rain = 0
KBO1 200254Z 20010KT 11/M03 A2984 RMK A01 T01101027  RH  038%=      5-min Rain = 0
KBO1 200255Z 20009KT 11/M03 A2984 RMK A01 T01091027  RH  039%=      5-min Rain = 0
KBO1 200256Z 20009KT 11/M03 A2984 RMK A01 T01081027  RH  039%=      5-min Rain = 0
KBO1 200257Z 20009KT 11/M03 A2984 RMK A01 T01061027  RH  039%=      5-min Rain = 0
KBO1 200258Z 20010KT 11/M03 A2984 RMK A01 T01051027  RH  039%=      5-min Rain = 0
KBO1 200259Z 20010KT 11/M03 A2984 RMK A01 T01051027  RH  040%=      5-min Rain = 0
KBO1 200300Z 21009KT 11/M03 A2984 RMK A01 T01051026  RH  040%=      5-min Rain = 0
KBO1 200301Z 21010KT 11/M03 A2984 RMK A01 T01051026  RH  040%=      5-min Rain = 0
KBO1 200302Z 20011KT 10/M03 A2984 RMK A01 T01041026  RH  040%=      5-min Rain = 0
KBO1 200303Z 20011KT 10/M03 A2984 RMK A01 T01041026  RH  040%=      5-min Rain = 0
KBO1 200304Z 20011KT 11/M03 A2984 RMK A01 T01051025  RH  040%=      5-min Rain = 0
KBO1 200305Z 21011KT 11/M03 A2984 RMK A01 T01061025  RH  040%=      5-min Rain = 0
KBO1 200306Z 21012KT 11/M03 A2984 RMK A01 T01071025  RH  039%=      5-min Rain = 0
KBO1 200307Z 21012KT 11/M02 A2984 RMK A01 T01091024  RH  039%=      5-min Rain = 0
KBO1 200308Z 21013KT 11/M02 A2984 RMK A01 T01111024  RH  039%=      5-min Rain = 0
KBO1 200309Z 20013KT 11/M02 A2984 RMK A01 T01141024  RH  038%=      5-min Rain = 0
KBO1 200310Z 21013KT 12/M02 A2984 RMK A01 T01161024  RH  038%=      5-min Rain = 0
KBO1 200311Z 21012KT 12/M02 A2984 RMK A01 T01161024  RH  037%=      5-min Rain = 0
KBO1 200312Z 20013KT 12/M02 A2984 RMK A01 T01171024  RH  037%=      5-min Rain = 0
KBO1 200313Z 20013KT 12/M03 A2984 RMK A01 T01171025  RH  037%=      5-min Rain = 0
KBO1 200314Z 20013KT 12/M02 A2984 RMK A01 T01171024  RH  037%=      5-min Rain = 0
KBO1 200315Z 20012KT 12/M03 A2984 RMK A01 T01161025  RH  037%=      5-min Rain = 0
KBO1 200316Z 21012KT 12/M03 A2984 RMK A01 T01151025  RH  038%=      5-min Rain = 0
KBO1 200317Z 20012KT 11/M03 A2984 RMK A01 T01141025  RH  038%=      5-min Rain = 0
KBO1 200318Z 21012KT 11/M03 A2984 RMK A01 T01131025  RH  038%=      5-min Rain = 0
KBO1 200319Z 21012KT 11/M03 A2984 RMK A01 T01121025  RH  038%=      5-min Rain = 0
KBO1 200320Z 21012KT 11/M02 A2984 RMK A01 T01121024  RH  038%=      5-min Rain = 0
KBO1 200321Z 21011KT 11/M02 A2984 RMK A01 T01121024  RH  039%=      5-min Rain = 0
KBO1 200322Z 21011KT 11/M02 A2984 RMK A01 T01111023  RH  039%=      5-min Rain = 0
KBO1 200323Z 21011KT 11/M02 A2984 RMK A01 T01111023  RH  039%=      5-min Rain = 0
KBO1 200324Z 21011KT 11/M02 A2984 RMK A01 T01111023  RH  039%=      5-min Rain = 0
KBO1 200325Z 21011KT 11/M02 A2984 RMK A01 T01111023  RH  039%=      5-min Rain = 0
KBO1 200326Z 21011KT 11/M02 A2984 RMK A01 T01111023  RH  039%=      5-min Rain = 0
KBO1 200327Z 21013KT 11/M02 A2984 RMK A01 T01111023  RH  039%=      5-min Rain = 0
KBO1 200328Z 21012KT 11/M02 A2984 RMK A01 T01121022  RH  039%=      5-min Rain = 0
KBO1 200329Z 21012KT 11/M02 A2984 RMK A01 T01131022  RH  039%=      5-min Rain = 0
KBO1 200330Z 21012KT 11/M02 A2984 RMK A01 T01141022  RH  039%=      5-min Rain = 0
KBO1 200331Z 21011KT 11/M02 A2984 RMK A01 T01141022  RH  039%=      5-min Rain = 0
KBO1 200332Z 21012KT 11/M02 A2984 RMK A01 T01141022  RH  039%=      5-min Rain = 0
KBO1 200333Z 21012KT 11/M02 A2984 RMK A01 T01141022  RH  039%=      5-min Rain = 0
KBO1 200334Z 21012KT 11/M02 A2984 RMK A01 T01141022  RH  039%=      5-min Rain = 0
KBO1 200335Z 21012KT 11/M02 A2984 RMK A01 T01141022  RH  039%=      5-min Rain = 0
KBO1 200336Z 21012KT 12/M02 A2984 RMK A01 T01151022  RH  038%=      5-min Rain = 0
KBO1 200337Z 21013KT 12/M02 A2984 RMK A01 T01161022  RH  038%=      5-min Rain = 0
KBO1 200338Z 21013KT 12/M02 A2984 RMK A01 T01161022  RH  038%=      5-min Rain = 0
KBO1 200339Z 21013KT 12/M02 A2984 RMK A01 T01161022  RH  038%=      5-min Rain = 0
KBO1 200340Z 21013KT 12/M02 A2984 RMK A01 T01171021  RH  038%=      5-min Rain = 0
KBO1 200341Z 21014KT 12/M02 A2984 RMK A01 T01181022  RH  038%=      5-min Rain = 0
KBO1 200342Z 21014KT 12/M02 A2984 RMK A01 T01201021  RH  037%=      5-min Rain = 0
KBO1 200343Z 21014KT 12/M02 A2984 RMK A01 T01211021  RH  037%=      5-min Rain = 0
KBO1 200344Z 21014KT 12/M02 A2984 RMK A01 T01221021  RH  037%=      5-min Rain = 0
KBO1 200345Z 21013KT 12/M02 A2984 RMK A01 T01221022  RH  037%=      5-min Rain = 0
KBO1 200346Z 21013KT 12/M02 A2984 RMK A01 T01221022  RH  037%=      5-min Rain = 0
KBO1 200347Z 21013KT 12/M02 A2984 RMK A01 T01221022  RH  037%=      5-min Rain = 0
KBO1 200348Z 21013KT 12/M02 A2984 RMK A01 T01201022  RH  037%=      5-min Rain = 0
KBO1 200349Z 21012KT 12/M02 A2984 RMK A01 T01191022  RH  037%=      5-min Rain = 0
KBO1 200350Z 22012KT 12/M02 A2984 RMK A01 T01181022  RH  038%=      5-min Rain = 0
KBO1 200351Z 22012KT 12/M02 A2984 RMK A01 T01171023  RH  038%=      5-min Rain = 0
KBO1 200352Z 22012KT 12/M02 A2984 RMK A01 T01161023  RH  038%=      5-min Rain = 0
KBO1 200353Z 22012KT 11/M02 A2984 RMK A01 T01141023  RH  038%=      5-min Rain = 0
KBO1 200354Z 22012KT 11/M02 A2984 RMK A01 T01121023  RH  039%=      5-min Rain = 0
KBO1 200355Z 22012KT 11/M02 A2984 RMK A01 T01121023  RH  039%=      5-min Rain = 0
KBO1 200356Z 22012KT 11/M02 A2984 RMK A01 T01121023  RH  039%=      5-min Rain = 0
KBO1 200357Z 22012KT 11/M02 A2984 RMK A01 T01121023  RH  039%=      5-min Rain = 0
KBO1 200358Z 22011KT 11/M02 A2984 RMK A01 T01121023  RH  039%=      5-min Rain = 0
KBO1 200359Z 22011KT 11/M02 A2984 RMK A01 T01121023  RH  039%=      5-min Rain = 0
KBO1 200400Z 22011KT 11/M02 A2984 RMK A01 T01121023  RH  039%=      5-min Rain = 0
KBO1 200401Z 21011KT 11/M02 A2984 RMK A01 T01121022  RH  039%=      5-min Rain = 0
KBO1 200402Z 21010KT 11/M02 A2984 RMK A01 T01121022  RH  039%=      5-min Rain = 0
KBO1 200403Z 21011KT 11/M02 A2984 RMK A01 T01121022  RH  039%=      5-min Rain = 0
KBO1 200404Z 21011KT 11/M02 A2984 RMK A01 T01121022  RH  039%=      5-min Rain = 0
KBO1 200405Z 21012KT 11/M02 A2984 RMK A01 T01121022  RH  039%=      5-min Rain = 0
KBO1 200406Z 21012KT 11/M02 A2984 RMK A01 T01141021  RH  039%=      5-min Rain = 0
KBO1 200407Z 21013KT 12/M02 A2984 RMK A01 T01161021  RH  038%=      5-min Rain = 0
KBO1 200408Z 21013KT 12/M02 A2984 RMK A01 T01181021  RH  038%=      5-min Rain = 0
KBO1 200409Z 21014KT 12/M02 A2984 RMK A01 T01191021  RH  038%=      5-min Rain = 0
KBO1 200410Z 21014KT 12/M02 A2984 RMK A01 T01201021  RH  038%=      5-min Rain = 0
KBO1 200411Z 21014KT 12/M02 A2984 RMK A01 T01211021  RH  037%=      5-min Rain = 0
KBO1 200412Z 20014KT 12/M02 A2984 RMK A01 T01221021  RH  037%=      5-min Rain = 0
KBO1 200413Z 20013KT 12/M02 A2984 RMK A01 T01231021  RH  037%=      5-min Rain = 0
KBO1 200414Z 21013KT 12/M02 A2984 RMK A01 T01231021  RH  037%=      5-min Rain = 0
KBO1 200415Z 21013KT 12/M02 A2984 RMK A01 T01221021  RH  037%=      5-min Rain = 0
KBO1 200416Z 21013KT 12/M02 A2984 RMK A01 T01221021  RH  037%=      5-min Rain = 0
KBO1 200417Z 21013KT 12/M02 A2984 RMK A01 T01211022  RH  037%=      5-min Rain = 0
KBO1 200418Z 21013KT 12/M02 A2984 RMK A01 T01211021  RH  037%=      5-min Rain = 0
KBO1 200419Z 20013KT 12/M02 A2984 RMK A01 T01211021  RH  037%=      5-min Rain = 0
KBO1 200420Z 21013KT 12/M02 A2984 RMK A01 T01211021  RH  037%=      5-min Rain = 0
KBO1 200421Z 20013KT 12/M02 A2984 RMK A01 T01201022  RH  037%=      5-min Rain = 0
KBO1 200422Z 21013KT 12/M02 A2984 RMK A01 T01191022  RH  037%=      5-min Rain = 0
KBO1 200423Z 21012KT 12/M02 A2984 RMK A01 T01181022  RH  038%=      5-min Rain = 0
KBO1 200424Z 21013KT 12/M02 A2984 RMK A01 T01181022  RH  038%=      5-min Rain = 0
KBO1 200425Z 21012KT 12/M02 A2984 RMK A01 T01171022  RH  038%=      5-min Rain = 0
KBO1 200426Z 21012KT 12/M02 A2984 RMK A01 T01151022  RH  038%=      5-min Rain = 0
KBO1 200427Z 21012KT 12/M02 A2984 RMK A01 T01151022  RH  038%=      5-min Rain = 0
KBO1 200428Z 21011KT 12/M02 A2984 RMK A01 T01151022  RH  038%=      5-min Rain = 0
KBO1 200429Z 21011KT 12/M02 A2984 RMK A01 T01151022  RH  038%=      5-min Rain = 0
KBO1 200430Z 21011KT 11/M02 A2984 RMK A01 T01141022  RH  038%=      5-min Rain = 0
KBO1 200431Z 21011KT 11/M02 A2984 RMK A01 T01131023  RH  039%=      5-min Rain = 0
KBO1 200432Z 21011KT 11/M02 A2984 RMK A01 T01131022  RH  039%=      5-min Rain = 0
KBO1 200433Z 21010KT 11/M02 A2984 RMK A01 T01131022  RH  039%=      5-min Rain = 0
KBO1 200434Z 21010KT 11/M02 A2984 RMK A01 T01121023  RH  039%=      5-min Rain = 0
KBO1 200435Z 21010KT 11/M02 A2984 RMK A01 T01111023  RH  039%=      5-min Rain = 0
KBO1 200436Z 21010KT 11/M02 A2984 RMK A01 T01101023  RH  039%=      5-min Rain = 0
KBO1 200437Z 22010KT 11/M02 A2984 RMK A01 T01091023  RH  040%=      5-min Rain = 0
KBO1 200438Z 22010KT 11/M02 A2984 RMK A01 T01081023  RH  040%=      5-min Rain = 0
KBO1 200439Z 22010KT 11/M02 A2984 RMK A01 T01061023  RH  040%=      5-min Rain = 0
KBO1 200440Z 22010KT 11/M02 A2984 RMK A01 T01061023  RH  040%=      5-min Rain = 0
KBO1 200441Z 22010KT 11/M02 A2984 RMK A01 T01061023  RH  040%=      5-min Rain = 0
KBO1 200442Z 22010KT 11/M02 A2984 RMK A01 T01061023  RH  041%=      5-min Rain = 0
KBO1 200443Z 22010KT 11/M02 A2984 RMK A01 T01061023  RH  040%=      5-min Rain = 0
KBO1 200444Z 22010KT 11/M02 A2984 RMK A01 T01051023  RH  041%=      5-min Rain = 0
KBO1 200445Z 22009KT 10/M02 A2984 RMK A01 T01041023  RH  041%=      5-min Rain = 0
KBO1 200446Z 23009KT 10/M02 A2984 RMK A01 T01021023  RH  041%=      5-min Rain = 0
KBO1 200447Z 23009KT 10/M02 A2984 RMK A01 T01011022  RH  042%=      5-min Rain = 0
KBO1 200448Z 23009KT 10/M02 A2984 RMK A01 T00991022  RH  043%=      5-min Rain = 0
KBO1 200449Z 23009KT 10/M02 A2984 RMK A01 T00961023  RH  043%=      5-min Rain = 0
KBO1 200450Z 23009KT 09/M02 A2983 RMK A01 T00941024  RH  044%=      5-min Rain = 0
KBO1 200451Z 22009KT 09/M02 A2983 RMK A01 T00931024  RH  044%=      5-min Rain = 0
KBO1 200452Z 22009KT 09/M03 A2983 RMK A01 T00911025  RH  044%=      5-min Rain = 0
KBO1 200453Z 22009KT 09/M03 A2983 RMK A01 T00911025  RH  044%=      5-min Rain = 0
KBO1 200454Z 22009KT 09/M03 A2983 RMK A01 T00901025  RH  044%=      5-min Rain = 0
KBO1 200455Z 22008KT 09/M03 A2983 RMK A01 T00901025  RH  044%=      5-min Rain = 0
KBO1 200456Z 22008KT 09/M03 A2983 RMK A01 T00891025  RH  044%=      5-min Rain = 0
KBO1 200457Z 22008KT 09/M03 A2983 RMK A01 T00891025  RH  045%=      5-min Rain = 0
KBO1 200458Z 22008KT 09/M03 A2983 RMK A01 T00881025  RH  045%=      5-min Rain = 0
KBO1 200459Z 22008KT 09/M03 A2983 RMK A01 T00871025  RH  045%=      5-min Rain = 0
KBO1 200500Z 23007KT 09/M03 A2983 RMK A01 T00861026  RH  045%=      5-min Rain = 0
KBO1 200501Z 23007KT 08/M03 A2983 RMK A01 T00841026  RH  046%=      5-min Rain = 0
KBO1 200502Z 22007KT 08/M03 A2983 RMK A01 T00831026  RH  046%=      5-min Rain = 0
KBO1 200503Z 22007KT 08/M03 A2983 RMK A01 T00831026  RH  046%=      5-min Rain = 0
KBO1 200504Z 22007KT 08/M03 A2983 RMK A01 T00821026  RH  046%=      5-min Rain = 0
KBO1 200505Z 22007KT 08/M03 A2983 RMK A01 T00821026  RH  047%=      5-min Rain = 0
KBO1 200506Z 21007KT 08/M03 A2983 RMK A01 T00821026  RH  046%=      5-min Rain = 0
KBO1 200507Z 21007KT 08/M03 A2983 RMK A01 T00841025  RH  046%=      5-min Rain = 0
KBO1 200508Z 21007KT 09/M02 A2983 RMK A01 T00881024  RH  045%=      5-min Rain = 0
KBO1 200509Z 21008KT 09/M02 A2983 RMK A01 T00901024  RH  045%=      5-min Rain = 0
KBO1 200510Z 21008KT 09/M02 A2983 RMK A01 T00901024  RH  045%=      5-min Rain = 0
KBO1 200511Z 21008KT 09/M03 A2983 RMK A01 T00901025  RH  044%=      5-min Rain = 0
KBO1 200512Z 21008KT 09/M02 A2983 RMK A01 T00891024  RH  045%=      5-min Rain = 0
KBO1 200513Z 21009KT 09/M02 A2983 RMK A01 T00891024  RH  045%=      5-min Rain = 0
KBO1 200514Z 21009KT 09/M02 A2983 RMK A01 T00891023  RH  045%=      5-min Rain = 0
KBO1 200515Z 21009KT 09/M02 A2983 RMK A01 T00901023  RH  045%=      5-min Rain = 0
KBO1 200516Z 21009KT 09/M02 A2983 RMK A01 T00901023  RH  045%=      5-min Rain = 0
KBO1 200517Z 21009KT 09/M02 A2983 RMK A01 T00901023  RH  045%=      5-min Rain = 0
KBO1 200518Z 21009KT 09/M02 A2983 RMK A01 T00891023  RH  045%=      5-min Rain = 0
KBO1 200519Z 21008KT 09/M02 A2983 RMK A01 T00891023  RH  045%=      5-min Rain = 0
KBO1 200520Z 21008KT 09/M02 A2983 RMK A01 T00901022  RH  045%=      5-min Rain = 0
KBO1 200521Z 21008KT 09/M02 A2983 RMK A01 T00911022  RH  045%=      5-min Rain = 0
KBO1 200522Z 21008KT 09/M02 A2983 RMK A01 T00921022  RH  045%=      5-min Rain = 0
KBO1 200523Z 22008KT 09/M02 A2983 RMK A01 T00941021  RH  044%=      5-min Rain = 0
KBO1 200524Z 22009KT 10/M02 A2983 RMK A01 T00951021  RH  044%=      5-min Rain = 0
KBO1 200525Z 22010KT 10/M02 A2983 RMK A01 T00971020  RH  044%=      5-min Rain = 0
KBO1 200526Z 22011KT 10/M02 A2983 RMK A01 T01001020  RH  043%=      5-min Rain = 0
KBO1 200527Z 22012KT 11/M02 A2983 RMK A01 T01091018  RH  041%=      5-min Rain = 0
KBO1 200528Z 22012KT 12/M02 A2983 RMK A01 T01161018  RH  039%=      5-min Rain = 0
KBO1 200529Z 22013KT 12/M02 A2983 RMK A01 T01201019  RH  038%=      5-min Rain = 0
KBO1 200530Z 22013KT 12/M02 A2983 RMK A01 T01221019  RH  037%=      5-min Rain = 0
KBO1 200531Z 22012KT 12/M02 A2983 RMK A01 T01231020  RH  037%=      5-min Rain = 0
KBO1 200532Z 22012KT 12/M02 A2982 RMK A01 T01231020  RH  037%=      5-min Rain = 0
KBO1 200533Z 22012KT 12/M02 A2982 RMK A01 T01241021  RH  036%=      5-min Rain = 0
KBO1 200534Z 22012KT 13/M02 A2983 RMK A01 T01261021  RH  036%=      5-min Rain = 0
KBO1 200535Z 22013KT 13/M02 A2983 RMK A01 T01261022  RH  036%=      5-min Rain = 0
KBO1 200536Z 22013KT 13/M02 A2983 RMK A01 T01271022  RH  036%=      5-min Rain = 0
KBO1 200537Z 22013KT 13/M02 A2982 RMK A01 T01271021  RH  036%=      5-min Rain = 0
KBO1 200538Z 22013KT 13/M02 A2982 RMK A01 T01271021  RH  036%=      5-min Rain = 0
KBO1 200539Z 22013KT 13/M02 A2982 RMK A01 T01271022  RH  036%=      5-min Rain = 0
KBO1 200540Z 22013KT 13/M02 A2982 RMK A01 T01271022  RH  035%=      5-min Rain = 0
KBO1 200541Z 22013KT 13/M02 A2982 RMK A01 T01271023  RH  035%=      5-min Rain = 0
KBO1 200542Z 22013KT 13/M02 A2982 RMK A01 T01271023  RH  035%=      5-min Rain = 0
KBO1 200543Z 22013KT 13/M02 A2982 RMK A01 T01281024  RH  035%=      5-min Rain = 0
KBO1 200544Z 22013KT 13/M02 A2982 RMK A01 T01281024  RH  035%=      5-min Rain = 0
KBO1 200545Z 22013KT 13/M02 A2982 RMK A01 T01281024  RH  035%=      5-min Rain = 0
KBO1 200546Z 22013KT 13/M02 A2982 RMK A01 T01281024  RH  035%=      5-min Rain = 0
KBO1 200547Z 22012KT 13/M02 A2982 RMK A01 T01281024  RH  035%=      5-min Rain = 0
KBO1 200548Z 21012KT 13/M03 A2982 RMK A01 T01271025  RH  035%=      5-min Rain = 0
KBO1 200549Z 22012KT 13/M03 A2982 RMK A01 T01271025  RH  035%=      5-min Rain = 0
KBO1 200550Z 21012KT 13/M03 A2982 RMK A01 T01271025  RH  035%=      5-min Rain = 0
KBO1 200551Z 21011KT 13/M03 A2982 RMK A01 T01271025  RH  035%=      5-min Rain = 0
KBO1 200552Z 21011KT 13/M03 A2982 RMK A01 T01251026  RH  035%=      5-min Rain = 0
KBO1 200553Z 21011KT 12/M03 A2982 RMK A01 T01241026  RH  035%=      5-min Rain = 0
KBO1 200554Z 21011KT 12/M03 A2982 RMK A01 T01231026  RH  035%=      5-min Rain = 0
KBO1 200555Z 21010KT 12/M03 A2982 RMK A01 T01231026  RH  035%=      5-min Rain = 0
KBO1 200556Z 21009KT 12/M03 A2982 RMK A01 T01231026  RH  036%=      5-min Rain = 0
KBO1 200557Z 21010KT 12/M03 A2982 RMK A01 T01211026  RH  036%=      5-min Rain = 0
KBO1 200558Z 21010KT 12/M03 A2982 RMK A01 T01201026  RH  036%=      5-min Rain = 0
KBO1 200559Z 21010KT 12/M03 A2982 RMK A01 T01191026  RH  036%=      5-min Rain = 0

Page generated in 0.0794 seconds.